Time,TemperatureF,DewpointF,PressureIn,WindDirection,WindDirectionDegrees,WindSpeedMPH,WindSpeedGustMPH,Humidity,HourlyPrecipIn,Conditions,Clouds,dailyrainin,SolarRadiationWatts/m^2,SoftwareType,DateUTC
2013-01-05 00:00:00,34.8,23.9,29.91,West,280,7.0,18.0,64,0.00,,---,0.00,0.00,VWS V14.01,2013-01-05 05:00:00,
2013-01-05 00:01:00,34.7,24.1,29.91,West,279,7.0,20.0,65,0.00,,---,0.00,0.00,VWS V14.01,2013-01-05 05:01:00,
2013-01-05 00:05:00,34.8,23.5,29.91,NW,309,7.0,21.0,63,0.00,,---,0.00,0.00,VWS V14.01,2013-01-05 05:05:00,
2013-01-05 00:06:00,34.8,23.5,29.91,West,268,10.0,21.0,63,0.00,,---,0.00,0.00,VWS V14.01,2013-01-05 05:06:00,
2013-01-05 00:10:00,34.8,23.5,29.91,WNW,282,10.0,22.0,63,0.00,,---,0.00,0.00,VWS V14.01,2013-01-05 05:10:00,
2013-01-05 00:11:00,34.8,23.5,29.91,WNW,282,10.0,22.0,63,0.00,,---,0.00,0.00,VWS V14.01,2013-01-05 05:11:00,
2013-01-05 00:15:00,34.7,23.8,29.91,WNW,287,6.0,20.0,64,0.00,,---,0.00,0.00,VWS V14.01,2013-01-05 05:15:00,
2013-01-05 00:16:00,34.7,23.8,29.91,WNW,287,6.0,20.0,64,0.00,,---,0.00,0.00,VWS V14.01,2013-01-05 05:16:00,
2013-01-05 00:20:00,34.6,24.1,29.92,WNW,286,15.0,21.0,65,0.00,,---,0.00,0.00,VWS V14.01,2013-01-05 05:20:00,
2013-01-05 00:21:00,34.6,24.1,29.92,WNW,286,15.0,21.0,65,0.00,,---,0.00,0.00,VWS V14.01,2013-01-05 05:21:00,
2013-01-05 00:25:00,34.7,23.8,29.92,West,273,5.0,19.0,64,0.00,,---,0.00,0.00,VWS V14.01,2013-01-05 05:25:00,
2013-01-05 00:26:00,34.7,23.8,29.92,NW,309,7.0,19.0,64,0.00,,---,0.00,0.00,VWS V14.01,2013-01-05 05:26:00,
2013-01-05 00:30:00,34.6,23.7,29.92,West,275,13.0,23.0,64,0.00,,---,0.00,0.00,VWS V14.01,2013-01-05 05:30:00,
2013-01-05 00:31:00,34.6,23.7,29.92,West,275,13.0,23.0,64,0.00,,---,0.00,0.00,VWS V14.01,2013-01-05 05:31:00,
2013-01-05 00:35:00,34.7,23.8,29.92,WNW,286,14.0,20.0,64,0.00,,---,0.00,0.00,VWS V14.01,2013-01-05 05:35:00,
2013-01-05 00:36:00,34.6,23.7,29.92,West,271,14.0,20.0,64,0.00,,---,0.00,0.00,VWS V14.01,2013-01-05 05:36:00,
2013-01-05 00:40:00,34.6,24.1,29.92,WSW,249,15.0,23.0,65,0.00,,---,0.00,0.00,VWS V14.01,2013-01-05 05:40:00,
2013-01-05 00:41:00,34.6,24.1,29.92,West,259,4.0,23.0,65,0.00,,---,0.00,0.00,VWS V14.01,2013-01-05 05:41:00,
2013-01-05 00:44:00,34.6,23.7,29.92,West,267,5.0,16.0,64,0.00,,---,0.00,0.00,VWS V14.01,2013-01-05 05:44:00,
2013-01-05 00:45:00,34.6,24.1,29.92,WNW,302,7.0,16.0,65,0.00,,---,0.00,0.00,VWS V14.01,2013-01-05 05:45:00,
2013-01-05 00:49:00,34.6,23.7,29.92,WNW,284,13.0,21.0,64,0.00,,---,0.00,0.00,VWS V14.01,2013-01-05 05:49:00,
2013-01-05 00:50:00,34.5,23.2,29.92,WSW,254,13.0,21.0,63,0.00,,---,0.00,0.00,VWS V14.01,2013-01-05 05:50:00,
2013-01-05 00:54:00,34.5,23.6,29.92,West,259,4.0,14.0,64,0.00,,---,0.00,0.00,VWS V14.01,2013-01-05 05:54:00,
2013-01-05 00:55:00,34.5,23.6,29.92,WNW,294,14.0,19.0,64,0.00,,---,0.00,0.00,VWS V14.01,2013-01-05 05:55:00,
2013-01-05 00:59:00,34.6,23.7,29.92,WNW,300,10.0,24.0,64,0.00,,---,0.00,0.00,VWS V14.01,2013-01-05 05:59:00,
2013-01-05 01:00:00,34.6,23.7,29.92,West,278,12.0,24.0,64,0.00,,---,0.00,0.00,VWS V14.01,2013-01-05 06:00:00,
2013-01-05 01:04:00,34.7,24.1,29.93,WNW,292,10.0,17.0,65,0.00,,---,0.00,0.00,VWS V14.01,2013-01-05 06:04:00,
2013-01-05 01:05:00,34.6,23.3,29.92,West,279,20.0,20.0,63,0.00,,---,0.00,0.00,VWS V14.01,2013-01-05 06:05:00,
2013-01-05 01:09:00,34.7,23.4,29.93,NNW,340,11.0,20.0,63,0.00,,---,0.00,0.00,VWS V14.01,2013-01-05 06:09:00,
2013-01-05 01:10:00,34.6,23.7,29.93,NW,315,5.0,20.0,64,0.00,,---,0.00,0.00,VWS V14.01,2013-01-05 06:10:00,
2013-01-05 01:14:00,34.5,23.2,29.93,West,275,12.0,22.0,63,0.00,,---,0.00,0.00,VWS V14.01,2013-01-05 06:14:00,
2013-01-05 01:15:00,34.5,23.6,29.93,WNW,284,16.0,25.0,64,0.00,,---,0.00,0.00,VWS V14.01,2013-01-05 06:15:00,
2013-01-05 01:19:00,34.6,23.7,29.93,West,277,6.0,17.0,64,0.00,,---,0.00,0.00,VWS V14.01,2013-01-05 06:19:00,
2013-01-05 01:20:00,34.6,23.3,29.93,West,270,8.0,21.0,63,0.00,,---,0.00,0.00,VWS V14.01,2013-01-05 06:20:00,
2013-01-05 01:24:00,34.5,23.2,29.93,WSW,252,19.0,22.0,63,0.00,,---,0.00,0.00,VWS V14.01,2013-01-05 06:24:00,
2013-01-05 01:25:00,34.5,23.6,29.93,West,279,10.0,22.0,64,0.00,,---,0.00,0.00,VWS V14.01,2013-01-05 06:25:00,
2013-01-05 01:29:00,34.5,23.2,29.93,WNW,294,9.0,21.0,63,0.00,,---,0.00,0.00,VWS V14.01,2013-01-05 06:29:00,
2013-01-05 01:30:00,34.5,23.2,29.93,WNW,302,17.0,21.0,63,0.00,,---,0.00,0.00,VWS V14.01,2013-01-05 06:30:00,
2013-01-05 01:34:00,34.5,23.6,29.94,WNW,291,5.0,17.0,64,0.00,,---,0.00,0.00,VWS V14.01,2013-01-05 06:34:00,
2013-01-05 01:35:00,34.4,23.5,29.94,WNW,283,9.0,17.0,64,0.00,,---,0.00,0.00,VWS V14.01,2013-01-05 06:35:00,
2013-01-05 01:39:00,34.4,23.5,29.94,West,268,14.0,18.0,64,0.00,,---,0.00,0.00,VWS V14.01,2013-01-05 06:39:00,
2013-01-05 01:40:00,34.4,23.5,29.94,WNW,288,5.0,19.0,64,0.00,,---,0.00,0.00,VWS V14.01,2013-01-05 06:40:00,
2013-01-05 01:44:00,34.4,23.9,29.94,WNW,287,7.0,17.0,65,0.00,,---,0.00,0.00,VWS V14.01,2013-01-05 06:44:00,
2013-01-05 01:45:00,34.4,24.2,29.94,West,280,4.0,17.0,66,0.00,,---,0.00,0.00,VWS V14.01,2013-01-05 06:45:00,
2013-01-05 01:49:00,34.3,23.8,29.94,WNW,286,6.0,16.0,65,0.00,,---,0.00,0.00,VWS V14.01,2013-01-05 06:49:00,
2013-01-05 01:50:00,34.4,23.9,29.94,West,279,8.0,18.0,65,0.00,,---,0.00,0.00,VWS V14.01,2013-01-05 06:50:00,
2013-01-05 01:54:00,34.4,23.5,29.94,WNW,284,11.0,24.0,64,0.00,,---,0.00,0.00,VWS V14.01,2013-01-05 06:54:00,
2013-01-05 01:55:00,34.4,23.5,29.95,NW,310,8.0,24.0,64,0.00,,---,0.00,0.00,VWS V14.01,2013-01-05 06:55:00,
2013-01-05 01:59:00,34.4,23.1,29.94,West,281,17.0,23.0,63,0.00,,---,0.00,0.00,VWS V14.01,2013-01-05 06:59:00,
2013-01-05 02:00:00,34.4,23.1,29.95,WNW,291,21.0,24.0,63,0.00,,---,0.00,0.00,VWS V14.01,2013-01-05 07:00:00,
2013-01-05 02:04:00,34.5,23.2,29.95,West,276,20.0,24.0,63,0.00,,---,0.00,0.00,VWS V14.01,2013-01-05 07:04:00,
2013-01-05 02:05:00,34.5,23.2,29.95,West,281,16.0,29.0,63,0.00,,---,0.00,0.00,VWS V14.01,2013-01-05 07:05:00,
2013-01-05 02:08:00,34.5,23.2,29.95,West,281,21.0,21.0,63,0.00,,---,0.00,0.00,VWS V14.01,2013-01-05 07:08:00,
2013-01-05 02:10:00,34.5,23.2,29.95,WNW,292,9.0,21.0,63,0.00,,---,0.00,0.00,VWS V14.01,2013-01-05 07:10:00,
2013-01-05 02:13:00,34.5,23.6,29.95,WNW,294,13.0,23.0,64,0.00,,---,0.00,0.00,VWS V14.01,2013-01-05 07:13:00,
2013-01-05 02:15:00,34.4,23.5,29.95,West,276,16.0,23.0,64,0.00,,---,0.00,0.00,VWS V14.01,2013-01-05 07:15:00,
2013-01-05 02:18:00,34.4,23.5,29.96,WNW,298,8.0,19.0,64,0.00,,---,0.00,0.00,VWS V14.01,2013-01-05 07:18:00,
2013-01-05 02:20:00,34.3,23.4,29.96,WNW,283,9.0,20.0,64,0.00,,---,0.00,0.00,VWS V14.01,2013-01-05 07:20:00,
2013-01-05 02:23:00,34.2,22.9,29.96,West,268,21.0,21.0,63,0.00,,---,0.00,0.00,VWS V14.01,2013-01-05 07:23:00,
2013-01-05 02:25:00,34.3,23.0,29.96,West,280,21.0,24.0,63,0.00,,---,0.00,0.00,VWS V14.01,2013-01-05 07:25:00,
2013-01-05 02:28:00,34.2,22.9,29.96,WNW,285,6.0,22.0,63,0.00,,---,0.00,0.00,VWS V14.01,2013-01-05 07:28:00,
2013-01-05 02:30:00,34.2,23.3,29.96,West,279,13.0,22.0,64,0.00,,---,0.00,0.00,VWS V14.01,2013-01-05 07:30:00,
2013-01-05 02:33:00,34.3,23.4,29.96,NW,305,20.0,24.0,64,0.00,,---,0.00,0.00,VWS V14.01,2013-01-05 07:33:00,
2013-01-05 02:35:00,34.3,23.0,29.96,WNW,296,14.0,24.0,63,0.00,,---,0.00,0.00,VWS V14.01,2013-01-05 07:35:00,
2013-01-05 02:38:00,34.2,23.3,29.96,WNW,286,10.0,17.0,64,0.00,,---,0.00,0.00,VWS V14.01,2013-01-05 07:38:00,
2013-01-05 02:40:00,34.2,23.3,29.97,NW,308,11.0,20.0,64,0.00,,---,0.00,0.00,VWS V14.01,2013-01-05 07:40:00,
2013-01-05 02:43:00,34.1,23.2,29.97,WNW,294,5.0,19.0,64,0.00,,---,0.00,0.00,VWS V14.01,2013-01-05 07:43:00,
2013-01-05 02:45:00,34.1,23.6,29.97,WNW,284,15.0,19.0,65,0.00,,---,0.00,0.00,VWS V14.01,2013-01-05 07:45:00,
2013-01-05 02:48:00,34.1,23.6,29.97,WNW,291,13.0,17.0,65,0.00,,---,0.00,0.00,VWS V14.01,2013-01-05 07:48:00,
2013-01-05 02:50:00,34.0,23.1,29.97,NW,326,6.0,17.0,64,0.00,,---,0.00,0.00,VWS V14.01,2013-01-05 07:50:00,
2013-01-05 02:53:00,34.0,23.1,29.97,West,281,17.0,21.0,64,0.00,,---,0.00,0.00,VWS V14.01,2013-01-05 07:53:00,
2013-01-05 02:55:00,34.1,23.6,29.97,West,270,12.0,21.0,65,0.00,,---,0.00,0.00,VWS V14.01,2013-01-05 07:55:00,
2013-01-05 02:58:00,34.1,23.2,29.98,WNW,292,27.0,27.0,64,0.00,,---,0.00,0.00,VWS V14.01,2013-01-05 07:58:00,
2013-01-05 03:00:00,34.1,22.8,29.98,WNW,286,19.0,27.0,63,0.00,,---,0.00,0.00,VWS V14.01,2013-01-05 08:00:00,
2013-01-05 03:03:00,34.1,23.2,29.98,West,275,22.0,22.0,64,0.00,,---,0.00,0.00,VWS V14.01,2013-01-05 08:03:00,
2013-01-05 03:05:00,34.1,23.2,29.98,NW,306,8.0,22.0,64,0.00,,---,0.00,0.00,VWS V14.01,2013-01-05 08:05:00,
2013-01-05 03:08:00,34.1,22.8,29.98,WNW,292,7.0,22.0,63,0.00,,---,0.00,0.00,VWS V14.01,2013-01-05 08:08:00,
2013-01-05 03:10:00,34.1,23.2,29.98,West,264,11.0,22.0,64,0.00,,---,0.00,0.00,VWS V14.01,2013-01-05 08:10:00,
2013-01-05 03:13:00,34.0,23.1,29.98,West,276,17.0,17.0,64,0.00,,---,0.00,0.00,VWS V14.01,2013-01-05 08:13:00,
2013-01-05 03:15:00,34.0,23.1,29.98,WNW,300,9.0,19.0,64,0.00,,---,0.00,0.00,VWS V14.01,2013-01-05 08:15:00,
2013-01-05 03:18:00,34.0,23.1,29.99,NW,310,12.0,19.0,64,0.00,,---,0.00,0.00,VWS V14.01,2013-01-05 08:18:00,
2013-01-05 03:20:00,34.0,22.7,29.99,West,280,17.0,24.0,63,0.00,,---,0.00,0.00,VWS V14.01,2013-01-05 08:20:00,
2013-01-05 03:23:00,34.1,22.8,29.99,West,281,13.0,17.0,63,0.00,,---,0.00,0.00,VWS V14.01,2013-01-05 08:23:00,
2013-01-05 03:25:00,34.1,23.2,29.99,WNW,300,11.0,17.0,64,0.00,,---,0.00,0.00,VWS V14.01,2013-01-05 08:25:00,
2013-01-05 03:28:00,34.0,23.1,29.99,WNW,291,11.0,16.0,64,0.00,,---,0.00,0.00,VWS V14.01,2013-01-05 08:28:00,
2013-01-05 03:30:00,34.0,23.5,29.99,West,268,14.0,16.0,65,0.00,,---,0.00,0.00,VWS V14.01,2013-01-05 08:30:00,
2013-01-05 03:33:00,34.0,23.5,29.99,West,273,11.0,22.0,65,0.00,,---,0.00,0.00,VWS V14.01,2013-01-05 08:33:00,
2013-01-05 03:35:00,34.0,23.1,30.00,West,279,9.0,22.0,64,0.00,,---,0.00,0.00,VWS V14.01,2013-01-05 08:35:00,
2013-01-05 03:38:00,34.0,23.1,30.00,West,273,7.0,15.0,64,0.00,,---,0.00,0.00,VWS V14.01,2013-01-05 08:38:00,
2013-01-05 03:40:00,34.1,22.8,30.00,WNW,296,10.0,18.0,63,0.00,,---,0.00,0.00,VWS V14.01,2013-01-05 08:40:00,
2013-01-05 03:43:00,34.1,22.8,30.00,WNW,286,18.0,18.0,63,0.00,,---,0.00,0.00,VWS V14.01,2013-01-05 08:43:00,
2013-01-05 03:45:00,34.0,22.7,30.00,WSW,240,11.0,18.0,63,0.00,,---,0.00,0.00,VWS V14.01,2013-01-05 08:45:00,
2013-01-05 03:48:00,34.0,22.7,30.00,WNW,299,6.0,13.0,63,0.00,,---,0.00,0.00,VWS V14.01,2013-01-05 08:48:00,
2013-01-05 03:50:00,34.0,23.1,30.00,WNW,296,5.0,13.0,64,0.00,,---,0.00,0.00,VWS V14.01,2013-01-05 08:50:00,
2013-01-05 03:53:00,34.0,23.1,30.00,WNW,286,10.0,16.0,64,0.00,,---,0.00,0.00,VWS V14.01,2013-01-05 08:53:00,
2013-01-05 03:55:00,34.0,23.1,30.00,West,279,6.0,18.0,64,0.00,,---,0.00,0.00,VWS V14.01,2013-01-05 08:55:00,
2013-01-05 03:58:00,33.9,23.4,30.00,West,275,7.0,13.0,65,0.00,,---,0.00,0.00,VWS V14.01,2013-01-05 08:58:00,
2013-01-05 04:00:00,33.9,23.4,30.00,WNW,296,16.0,16.0,65,0.00,,---,0.00,0.00,VWS V14.01,2013-01-05 09:00:00,
2013-01-05 04:03:00,33.9,23.4,30.00,NW,314,9.0,18.0,65,0.00,,---,0.00,0.00,VWS V14.01,2013-01-05 09:03:00,
2013-01-05 04:05:00,34.0,23.5,30.00,WSW,246,9.0,19.0,65,0.00,,---,0.00,0.00,VWS V14.01,2013-01-05 09:05:00,
2013-01-05 04:08:00,34.1,23.6,30.00,NW,309,5.0,16.0,65,0.00,,---,0.00,0.00,VWS V14.01,2013-01-05 09:08:00,
2013-01-05 04:10:00,34.0,23.5,30.00,WNW,287,6.0,16.0,65,0.00,,---,0.00,0.00,VWS V14.01,2013-01-05 09:10:00,
2013-01-05 04:13:00,34.0,23.5,30.00,WNW,290,8.0,13.0,65,0.00,,---,0.00,0.00,VWS V14.01,2013-01-05 09:13:00,
2013-01-05 04:15:00,34.0,23.5,30.00,WNW,298,14.0,16.0,65,0.00,,---,0.00,0.00,VWS V14.01,2013-01-05 09:15:00,
2013-01-05 04:18:00,34.0,23.5,30.00,West,267,10.0,16.0,65,0.00,,---,0.00,0.00,VWS V14.01,2013-01-05 09:18:00,
2013-01-05 04:20:00,34.1,23.6,30.00,West,275,4.0,21.0,65,0.00,,---,0.00,0.00,VWS V14.01,2013-01-05 09:20:00,
2013-01-05 04:23:00,34.1,23.6,30.00,WNW,286,3.0,9.0,65,0.00,,---,0.00,0.00,VWS V14.01,2013-01-05 09:23:00,
2013-01-05 04:25:00,34.1,23.6,30.00,West,279,11.0,14.0,65,0.00,,---,0.00,0.00,VWS V14.01,2013-01-05 09:25:00,
2013-01-05 04:28:00,34.1,23.6,30.00,West,264,2.0,16.0,65,0.00,,---,0.00,0.00,VWS V14.01,2013-01-05 09:28:00,
2013-01-05 04:30:00,34.1,24.0,30.00,West,268,14.0,16.0,66,0.00,,---,0.00,0.00,VWS V14.01,2013-01-05 09:30:00,
2013-01-05 04:33:00,34.1,24.0,30.00,West,261,3.0,14.0,66,0.00,,---,0.00,0.00,VWS V14.01,2013-01-05 09:33:00,
2013-01-05 04:35:00,34.3,24.1,30.00,West,275,9.0,16.0,66,0.00,,---,0.00,0.00,VWS V14.01,2013-01-05 09:35:00,
2013-01-05 04:38:00,34.3,24.1,30.00,West,265,10.0,14.0,66,0.00,,---,0.00,0.00,VWS V14.01,2013-01-05 09:38:00,
2013-01-05 04:40:00,34.4,23.9,30.00,West,281,14.0,14.0,65,0.00,,---,0.00,0.00,VWS V14.01,2013-01-05 09:40:00,
2013-01-05 04:43:00,34.5,24.3,30.01,North,360,8.0,15.0,66,0.00,,---,0.00,0.00,VWS V14.01,2013-01-05 09:43:00,
2013-01-05 04:45:00,34.6,24.4,30.01,WSW,241,7.0,15.0,66,0.00,,---,0.00,0.00,VWS V14.01,2013-01-05 09:45:00,
2013-01-05 04:48:00,34.6,24.4,30.00,NW,305,6.0,17.0,66,0.00,,---,0.00,0.00,VWS V14.01,2013-01-05 09:48:00,
2013-01-05 04:50:00,34.5,24.3,30.01,WNW,290,4.0,17.0,66,0.00,,---,0.00,0.00,VWS V14.01,2013-01-05 09:50:00,
2013-01-05 04:53:00,34.5,24.3,30.00,WNW,300,9.0,12.0,66,0.00,,---,0.00,0.00,VWS V14.01,2013-01-05 09:53:00,
2013-01-05 04:55:00,34.6,24.1,30.01,West,281,6.0,15.0,65,0.00,,---,0.00,0.00,VWS V14.01,2013-01-05 09:55:00,
2013-01-05 04:58:00,34.6,24.1,30.00,West,267,12.0,18.0,65,0.00,,---,0.00,0.00,VWS V14.01,2013-01-05 09:58:00,
2013-01-05 05:00:00,34.5,24.0,30.01,WNW,287,7.0,18.0,65,0.00,,---,0.00,0.00,VWS V14.01,2013-01-05 10:00:00,
2013-01-05 05:03:00,34.5,24.3,30.01,WNW,286,6.0,12.0,66,0.00,,---,0.00,0.00,VWS V14.01,2013-01-05 10:03:00,
2013-01-05 05:05:00,34.4,24.2,30.01,West,277,5.0,14.0,66,0.00,,---,0.00,0.00,VWS V14.01,2013-01-05 10:05:00,
2013-01-05 05:08:00,34.4,24.6,30.01,West,260,13.0,19.0,67,0.00,,---,0.00,0.00,VWS V14.01,2013-01-05 10:08:00,
2013-01-05 05:10:00,34.4,24.2,30.01,West,265,9.0,19.0,66,0.00,,---,0.00,0.00,VWS V14.01,2013-01-05 10:10:00,
2013-01-05 05:13:00,34.4,24.2,30.01,West,260,8.0,16.0,66,0.00,,---,0.00,0.00,VWS V14.01,2013-01-05 10:13:00,
2013-01-05 05:15:00,34.5,24.3,30.01,WSW,248,12.0,16.0,66,0.00,,---,0.00,0.00,VWS V14.01,2013-01-05 10:15:00,
2013-01-05 05:18:00,34.5,24.7,30.01,WNW,288,9.0,14.0,67,0.00,,---,0.00,0.00,VWS V14.01,2013-01-05 10:18:00,
2013-01-05 05:20:00,34.6,24.8,30.02,WSW,257,12.0,16.0,67,0.00,,---,0.00,0.00,VWS V14.01,2013-01-05 10:20:00,
2013-01-05 05:23:00,34.6,24.8,30.02,West,277,10.0,13.0,67,0.00,,---,0.00,0.00,VWS V14.01,2013-01-05 10:23:00,
2013-01-05 05:25:00,34.7,24.9,30.02,West,268,7.0,15.0,67,0.00,,---,0.00,0.00,VWS V14.01,2013-01-05 10:25:00,
2013-01-05 05:28:00,34.7,24.5,30.02,West,281,3.0,13.0,66,0.00,,---,0.00,0.00,VWS V14.01,2013-01-05 10:28:00,
2013-01-05 05:30:00,34.8,24.6,30.02,West,268,3.0,17.0,66,0.00,,---,0.00,0.00,VWS V14.01,2013-01-05 10:30:00,
2013-01-05 05:33:00,34.8,24.6,30.02,WSW,254,8.0,15.0,66,0.00,,---,0.00,0.00,VWS V14.01,2013-01-05 10:33:00,
2013-01-05 05:35:00,34.9,24.7,30.03,WNW,294,12.0,18.0,66,0.00,,---,0.00,0.00,VWS V14.01,2013-01-05 10:35:00,
2013-01-05 05:38:00,34.9,24.7,30.03,West,272,4.0,16.0,66,0.00,,---,0.00,0.00,VWS V14.01,2013-01-05 10:38:00,
2013-01-05 05:40:00,34.9,24.7,30.03,WSW,258,9.0,16.0,66,0.00,,---,0.00,0.00,VWS V14.01,2013-01-05 10:40:00,
2013-01-05 05:43:00,35.0,25.2,30.03,West,261,4.0,9.0,67,0.00,,---,0.00,0.00,VWS V14.01,2013-01-05 10:43:00,
2013-01-05 05:45:00,34.9,25.1,30.03,WNW,287,15.0,15.0,67,0.00,,---,0.00,0.00,VWS V14.01,2013-01-05 10:45:00,
2013-01-05 05:48:00,34.8,25.0,30.03,WSW,252,8.0,15.0,67,0.00,,---,0.00,0.00,VWS V14.01,2013-01-05 10:48:00,
2013-01-05 05:50:00,34.8,25.0,30.03,West,266,7.0,17.0,67,0.00,,---,0.00,0.00,VWS V14.01,2013-01-05 10:50:00,
2013-01-05 05:53:00,34.8,25.0,30.03,SW,226,7.0,13.0,67,0.00,,---,0.00,0.00,VWS V14.01,2013-01-05 10:53:00,
2013-01-05 05:55:00,34.8,25.0,30.04,WNW,284,7.0,17.0,67,0.00,,---,0.00,0.00,VWS V14.01,2013-01-05 10:55:00,
2013-01-05 05:58:00,34.8,25.0,30.04,West,260,10.0,16.0,67,0.00,,---,0.00,0.00,VWS V14.01,2013-01-05 10:58:00,
2013-01-05 06:00:00,34.9,25.4,30.04,West,278,6.0,18.0,68,0.00,,---,0.00,0.00,VWS V14.01,2013-01-05 11:00:00,
2013-01-05 06:03:00,34.9,25.1,30.04,WSW,258,6.0,14.0,67,0.00,,---,0.00,0.00,VWS V14.01,2013-01-05 11:03:00,
2013-01-05 06:05:00,35.0,25.2,30.04,West,280,7.0,17.0,67,0.00,,---,0.00,0.00,VWS V14.01,2013-01-05 11:05:00,
2013-01-05 06:08:00,35.0,25.2,30.04,West,277,8.0,13.0,67,0.00,,---,0.00,0.00,VWS V14.01,2013-01-05 11:08:00,
2013-01-05 06:10:00,35.0,25.5,30.04,WSW,242,8.0,15.0,68,0.00,,---,0.00,0.00,VWS V14.01,2013-01-05 11:10:00,
2013-01-05 06:13:00,35.0,25.2,30.05,West,267,14.0,14.0,67,0.00,,---,0.00,0.00,VWS V14.01,2013-01-05 11:13:00,
2013-01-05 06:15:00,35.1,25.3,30.05,West,264,9.0,16.0,67,0.00,,---,0.00,0.00,VWS V14.01,2013-01-05 11:15:00,
2013-01-05 06:18:00,35.2,25.4,30.05,WSW,250,14.0,17.0,67,0.00,,---,0.00,0.00,VWS V14.01,2013-01-05 11:18:00,
2013-01-05 06:20:00,35.3,25.5,30.05,SW,227,10.0,17.0,67,0.00,,---,0.00,0.00,VWS V14.01,2013-01-05 11:20:00,
2013-01-05 06:23:00,35.2,25.4,30.05,WSW,255,5.0,17.0,67,0.00,,---,0.00,0.00,VWS V14.01,2013-01-05 11:23:00,
2013-01-05 06:25:00,35.3,25.5,30.06,West,260,9.0,17.0,67,0.00,,---,0.00,0.00,VWS V14.01,2013-01-05 11:25:00,
2013-01-05 06:28:00,35.3,25.5,30.06,WNW,288,10.0,14.0,67,0.00,,---,0.00,0.00,VWS V14.01,2013-01-05 11:28:00,
2013-01-05 06:30:00,35.3,25.5,30.05,West,273,12.0,19.0,67,0.00,,---,0.00,0.00,VWS V14.01,2013-01-05 11:30:00,
2013-01-05 06:33:00,35.3,25.5,30.05,West,281,11.0,14.0,67,0.00,,---,0.00,0.00,VWS V14.01,2013-01-05 11:33:00,
2013-01-05 06:35:00,35.3,25.5,30.06,WSW,250,8.0,18.0,67,0.00,,---,0.00,0.00,VWS V14.01,2013-01-05 11:35:00,
2013-01-05 06:38:00,35.3,25.5,30.06,West,277,5.0,16.0,67,0.00,,---,0.00,0.00,VWS V14.01,2013-01-05 11:38:00,
2013-01-05 06:40:00,35.3,25.5,30.06,West,263,7.0,18.0,67,0.00,,---,0.00,0.00,VWS V14.01,2013-01-05 11:40:00,
2013-01-05 06:43:00,35.3,25.8,30.06,NW,307,19.0,19.0,68,0.00,,---,0.00,0.00,VWS V14.01,2013-01-05 11:43:00,
2013-01-05 06:45:00,35.3,25.5,30.06,WNW,284,8.0,19.0,67,0.00,,---,0.00,0.00,VWS V14.01,2013-01-05 11:45:00,
2013-01-05 06:48:00,35.3,25.8,30.06,SSW,208,4.0,18.0,68,0.00,,---,0.00,0.00,VWS V14.01,2013-01-05 11:48:00,
2013-01-05 06:50:00,35.4,25.9,30.07,SW,234,8.0,21.0,68,0.00,,---,0.00,0.00,VWS V14.01,2013-01-05 11:50:00,
2013-01-05 06:53:00,35.4,25.9,30.07,West,263,15.0,15.0,68,0.00,,---,0.00,0.00,VWS V14.01,2013-01-05 11:53:00,
2013-01-05 06:55:00,35.5,25.6,30.08,WSW,253,15.0,23.0,67,0.00,,---,0.00,0.00,VWS V14.01,2013-01-05 11:55:00,
2013-01-05 06:58:00,35.4,25.9,30.08,West,270,6.0,15.0,68,0.00,,---,0.00,0.00,VWS V14.01,2013-01-05 11:58:00,
2013-01-05 07:00:00,35.4,25.9,30.08,West,273,9.0,15.0,68,0.00,,---,0.00,0.00,VWS V14.01,2013-01-05 12:00:00,
2013-01-05 07:03:00,35.4,25.9,30.08,West,266,9.0,14.0,68,0.00,,---,0.00,0.00,VWS V14.01,2013-01-05 12:03:00,
2013-01-05 07:05:00,35.4,25.9,30.08,WSW,243,9.0,19.0,68,0.00,,---,0.00,0.00,VWS V14.01,2013-01-05 12:05:00,
2013-01-05 07:08:00,35.4,25.9,30.09,SW,229,9.0,14.0,68,0.00,,---,0.00,0.00,VWS V14.01,2013-01-05 12:08:00,
2013-01-05 07:10:00,35.5,26.0,30.09,SSW,210,7.0,16.0,68,0.00,,---,0.00,0.00,VWS V14.01,2013-01-05 12:10:00,
2013-01-05 07:13:00,35.5,26.0,30.09,WSW,257,7.0,9.0,68,0.00,,---,0.00,0.00,VWS V14.01,2013-01-05 12:13:00,
2013-01-05 07:15:00,35.5,26.4,30.10,West,268,5.0,12.0,69,0.00,,---,0.00,5.00,VWS V14.01,2013-01-05 12:15:00,
2013-01-05 07:18:00,35.5,26.4,30.10,West,264,8.0,13.0,69,0.00,,---,0.00,5.00,VWS V14.01,2013-01-05 12:18:00,
2013-01-05 07:20:00,35.5,26.0,30.10,WNW,286,7.0,13.0,68,0.00,,---,0.00,5.00,VWS V14.01,2013-01-05 12:20:00,
2013-01-05 07:23:00,35.6,26.1,30.10,WSW,244,13.0,16.0,68,0.00,,---,0.00,5.00,VWS V14.01,2013-01-05 12:23:00,
2013-01-05 07:25:00,35.7,26.5,30.10,West,260,17.0,17.0,69,0.00,,---,0.00,7.00,VWS V14.01,2013-01-05 12:25:00,
2013-01-05 07:28:00,35.7,26.2,30.10,WNW,291,4.0,22.0,68,0.00,,---,0.00,9.00,VWS V14.01,2013-01-05 12:28:00,
2013-01-05 07:30:00,35.9,26.4,30.10,West,274,4.0,22.0,68,0.00,,---,0.00,11.00,VWS V14.01,2013-01-05 12:30:00,
2013-01-05 07:33:00,35.9,26.7,30.10,West,275,6.0,14.0,69,0.00,,---,0.00,12.00,VWS V14.01,2013-01-05 12:33:00,
2013-01-05 07:35:00,35.9,26.7,30.10,WSW,244,19.0,19.0,69,0.00,,---,0.00,16.00,VWS V14.01,2013-01-05 12:35:00,
2013-01-05 07:38:00,35.9,26.4,30.10,WSW,244,5.0,19.0,68,0.00,,---,0.00,16.00,VWS V14.01,2013-01-05 12:38:00,
2013-01-05 07:40:00,35.9,26.4,30.10,WNW,284,9.0,19.0,68,0.00,,---,0.00,21.00,VWS V14.01,2013-01-05 12:40:00,
2013-01-05 07:43:00,36.0,26.5,30.10,SW,232,9.0,17.0,68,0.00,,---,0.00,21.00,VWS V14.01,2013-01-05 12:43:00,
2013-01-05 07:45:00,36.0,26.5,30.11,West,276,8.0,19.0,68,0.00,,---,0.00,23.00,VWS V14.01,2013-01-05 12:45:00,
2013-01-05 07:48:00,36.0,26.8,30.11,NW,306,5.0,12.0,69,0.00,,---,0.00,23.00,VWS V14.01,2013-01-05 12:48:00,
2013-01-05 07:50:00,36.1,26.6,30.11,West,276,3.0,17.0,68,0.00,,---,0.00,30.00,VWS V14.01,2013-01-05 12:50:00,
2013-01-05 07:53:00,36.1,26.9,30.11,West,281,12.0,14.0,69,0.00,,---,0.00,32.00,VWS V14.01,2013-01-05 12:53:00,
2013-01-05 07:55:00,36.1,26.9,30.11,NW,315,11.0,14.0,69,0.00,,---,0.00,33.00,VWS V14.01,2013-01-05 12:55:00,
2013-01-05 07:58:00,36.1,26.6,30.11,West,265,7.0,11.0,68,0.00,,---,0.00,33.00,VWS V14.01,2013-01-05 12:58:00,
2013-01-05 08:00:00,36.2,26.7,30.12,West,277,7.0,17.0,68,0.00,,---,0.00,35.00,VWS V14.01,2013-01-05 13:00:00,
2013-01-05 08:03:00,36.2,26.7,30.12,WSW,252,5.0,12.0,68,0.00,,---,0.00,37.00,VWS V14.01,2013-01-05 13:03:00,
2013-01-05 08:05:00,36.2,26.7,30.12,WSW,251,15.0,17.0,68,0.00,,---,0.00,44.00,VWS V14.01,2013-01-05 13:05:00,
2013-01-05 08:08:00,36.2,26.3,30.12,WNW,295,9.0,17.0,67,0.00,,---,0.00,47.00,VWS V14.01,2013-01-05 13:08:00,
2013-01-05 08:10:00,36.3,26.8,30.12,West,265,13.0,18.0,68,0.00,,---,0.00,56.00,VWS V14.01,2013-01-05 13:10:00,
2013-01-05 08:13:00,36.4,26.9,30.12,West,271,11.0,13.0,68,0.00,,---,0.00,58.00,VWS V14.01,2013-01-05 13:13:00,
2013-01-05 08:15:00,36.4,26.9,30.12,WNW,290,6.0,15.0,68,0.00,,---,0.00,67.00,VWS V14.01,2013-01-05 13:15:00,
2013-01-05 08:18:00,36.4,26.9,30.12,WSW,256,0.0,15.0,68,0.00,,---,0.00,67.00,VWS V14.01,2013-01-05 13:18:00,
2013-01-05 08:20:00,36.4,26.5,30.12,West,274,7.0,20.0,67,0.00,,---,0.00,65.00,VWS V14.01,2013-01-05 13:20:00,
2013-01-05 08:23:00,36.5,26.6,30.12,WSW,257,7.0,15.0,67,0.00,,---,0.00,65.00,VWS V14.01,2013-01-05 13:23:00,
2013-01-05 08:25:00,36.5,27.0,30.13,WSW,246,13.0,19.0,68,0.00,,---,0.00,69.00,VWS V14.01,2013-01-05 13:25:00,
2013-01-05 08:28:00,36.6,27.0,30.13,WNW,292,10.0,14.0,68,0.00,,---,0.00,69.00,VWS V14.01,2013-01-05 13:28:00,
2013-01-05 08:30:00,36.6,27.0,30.13,WSW,249,9.0,14.0,68,0.00,,---,0.00,67.00,VWS V14.01,2013-01-05 13:30:00,
2013-01-05 08:33:00,36.6,27.0,30.13,WSW,249,8.0,18.0,68,0.00,,---,0.00,63.00,VWS V14.01,2013-01-05 13:33:00,
2013-01-05 08:35:00,36.7,28.5,30.13,West,273,10.0,18.0,72,0.00,,---,0.00,69.00,VWS V14.01,2013-01-05 13:35:00,
2013-01-05 08:37:00,36.7,28.5,30.13,SW,217,8.0,21.0,72,0.00,,---,0.00,67.00,VWS V14.01,2013-01-05 13:37:00,
2013-01-05 08:40:00,36.7,27.1,30.14,WNW,291,17.0,21.0,68,0.00,,---,0.00,79.00,VWS V14.01,2013-01-05 13:40:00,
2013-01-05 08:42:00,36.7,27.1,30.14,West,275,8.0,17.0,68,0.00,,---,0.00,79.00,VWS V14.01,2013-01-05 13:42:00,
2013-01-05 08:45:00,36.8,26.9,30.14,West,275,13.0,18.0,67,0.00,,---,0.00,79.00,VWS V14.01,2013-01-05 13:45:00,
2013-01-05 08:47:00,36.8,26.9,30.15,SW,232,10.0,13.0,67,0.00,,---,0.00,79.00,VWS V14.01,2013-01-05 13:47:00,
2013-01-05 08:50:00,36.8,26.9,30.15,West,273,10.0,19.0,67,0.00,,---,0.00,91.00,VWS V14.01,2013-01-05 13:50:00,
2013-01-05 08:52:00,36.8,26.9,30.15,West,263,5.0,12.0,67,0.00,,---,0.00,93.00,VWS V14.01,2013-01-05 13:52:00,
2013-01-05 08:55:00,36.9,27.0,30.15,WSW,256,12.0,14.0,67,0.00,,---,0.00,98.00,VWS V14.01,2013-01-05 13:55:00,
2013-01-05 08:57:00,37.0,27.1,30.15,WSW,254,10.0,13.0,67,0.00,,---,0.00,105.00,VWS V14.01,2013-01-05 13:57:00,
2013-01-05 09:00:00,37.0,27.1,30.15,West,263,12.0,17.0,67,0.00,,---,0.00,111.00,VWS V14.01,2013-01-05 14:00:00,
2013-01-05 09:02:00,37.0,27.1,30.15,West,275,5.0,12.0,67,0.00,,---,0.00,114.00,VWS V14.01,2013-01-05 14:02:00,
2013-01-05 09:05:00,37.1,27.2,30.15,West,259,6.0,16.0,67,0.00,,---,0.00,111.00,VWS V14.01,2013-01-05 14:05:00,
2013-01-05 09:07:00,37.2,27.3,30.15,West,268,13.0,16.0,67,0.00,,---,0.00,113.00,VWS V14.01,2013-01-05 14:07:00,
2013-01-05 09:10:00,37.3,27.0,30.15,West,267,7.0,16.0,66,0.00,,---,0.00,114.00,VWS V14.01,2013-01-05 14:10:00,
2013-01-05 09:12:00,37.4,27.1,30.16,WSW,250,14.0,18.0,66,0.00,,---,0.00,114.00,VWS V14.01,2013-01-05 14:12:00,
2013-01-05 09:15:00,37.4,27.1,30.16,West,271,13.0,18.0,66,0.00,,---,0.00,114.00,VWS V14.01,2013-01-05 14:15:00,
2013-01-05 09:17:00,37.4,27.1,30.16,West,272,14.0,15.0,66,0.00,,---,0.00,125.00,VWS V14.01,2013-01-05 14:17:00,
2013-01-05 09:20:00,37.4,27.1,30.16,West,280,6.0,15.0,66,0.00,,---,0.00,113.00,VWS V14.01,2013-01-05 14:20:00,
2013-01-05 09:22:00,37.4,27.1,30.16,WSW,242,8.0,10.0,66,0.00,,---,0.00,118.00,VWS V14.01,2013-01-05 14:22:00,
2013-01-05 09:25:00,37.4,27.5,30.16,West,271,16.0,16.0,67,0.00,,---,0.00,144.00,VWS V14.01,2013-01-05 14:25:00,
2013-01-05 09:27:00,37.3,27.0,30.16,West,264,10.0,16.0,66,0.00,,---,0.00,151.00,VWS V14.01,2013-01-05 14:27:00,
2013-01-05 09:30:00,37.4,27.5,30.16,West,280,6.0,16.0,67,0.00,,---,0.00,181.00,VWS V14.01,2013-01-05 14:30:00,
2013-01-05 09:32:00,37.5,27.2,30.16,West,269,6.0,16.0,66,0.00,,---,0.00,221.00,VWS V14.01,2013-01-05 14:32:00,
2013-01-05 09:35:00,37.6,27.3,30.16,West,273,6.0,16.0,66,0.00,,---,0.00,199.00,VWS V14.01,2013-01-05 14:35:00,
2013-01-05 09:37:00,37.6,27.3,30.16,West,267,6.0,19.0,66,0.00,,---,0.00,199.00,VWS V14.01,2013-01-05 14:37:00,
2013-01-05 09:40:00,37.8,27.8,30.16,WNW,289,17.0,19.0,67,0.00,,---,0.00,287.00,VWS V14.01,2013-01-05 14:40:00,
2013-01-05 09:42:00,37.9,27.9,30.16,West,260,12.0,17.0,67,0.00,,---,0.00,309.00,VWS V14.01,2013-01-05 14:42:00,
2013-01-05 09:45:00,38.1,27.8,30.16,West,269,6.0,17.0,66,0.00,,---,0.00,251.00,VWS V14.01,2013-01-05 14:45:00,
2013-01-05 09:47:00,38.2,27.9,30.16,WNW,287,7.0,15.0,66,0.00,,---,0.00,320.00,VWS V14.01,2013-01-05 14:47:00,
2013-01-05 09:50:00,38.3,28.0,30.16,West,260,14.0,17.0,66,0.00,,---,0.00,327.00,VWS V14.01,2013-01-05 14:50:00,
2013-01-05 09:52:00,38.3,27.6,30.16,West,260,10.0,14.0,65,0.00,,---,0.00,322.00,VWS V14.01,2013-01-05 14:52:00,
2013-01-05 09:55:00,38.4,27.7,30.16,SW,234,6.0,16.0,65,0.00,,---,0.00,315.00,VWS V14.01,2013-01-05 14:55:00,
2013-01-05 09:57:00,38.4,27.7,30.16,West,265,15.0,16.0,65,0.00,,---,0.00,316.00,VWS V14.01,2013-01-05 14:57:00,
2013-01-05 10:00:00,38.4,27.3,30.16,NW,304,6.0,16.0,64,0.00,,---,0.00,323.00,VWS V14.01,2013-01-05 15:00:00,
2013-01-05 10:02:00,38.4,27.3,30.16,West,281,10.0,13.0,64,0.00,,---,0.00,322.00,VWS V14.01,2013-01-05 15:02:00,
2013-01-05 10:05:00,38.6,27.5,30.16,WNW,292,3.0,13.0,64,0.00,,---,0.00,332.00,VWS V14.01,2013-01-05 15:05:00,
2013-01-05 10:07:00,38.6,27.5,30.17,NW,309,13.0,17.0,64,0.00,,---,0.00,287.00,VWS V14.01,2013-01-05 15:07:00,
2013-01-05 10:10:00,38.8,27.3,30.16,NW,321,3.0,19.0,63,0.00,,---,0.00,62.00,VWS V14.01,2013-01-05 15:10:00,
2013-01-05 10:12:00,38.8,26.9,30.16,WNW,286,16.0,17.0,62,0.00,,---,0.00,63.00,VWS V14.01,2013-01-05 15:12:00,
2013-01-05 10:15:00,38.8,27.3,30.16,West,277,9.0,17.0,63,0.00,,---,0.00,345.00,VWS V14.01,2013-01-05 15:15:00,
2013-01-05 10:17:00,38.8,27.3,30.16,WNW,292,11.0,11.0,63,0.00,,---,0.00,348.00,VWS V14.01,2013-01-05 15:17:00,
2013-01-05 10:20:00,38.8,27.3,30.16,West,260,13.0,17.0,63,0.00,,---,0.00,355.00,VWS V14.01,2013-01-05 15:20:00,
2013-01-05 10:22:00,38.8,26.9,30.16,West,281,4.0,13.0,62,0.00,,---,0.00,355.00,VWS V14.01,2013-01-05 15:22:00,
2013-01-05 10:25:00,38.9,27.0,30.17,WNW,286,18.0,18.0,62,0.00,,---,0.00,360.00,VWS V14.01,2013-01-05 15:25:00,
2013-01-05 10:27:00,38.9,27.4,30.17,West,271,10.0,18.0,63,0.00,,---,0.00,360.00,VWS V14.01,2013-01-05 15:27:00,
2013-01-05 10:30:00,39.0,26.7,30.17,WNW,301,5.0,22.0,61,0.00,,---,0.00,360.00,VWS V14.01,2013-01-05 15:30:00,
2013-01-05 10:32:00,39.1,26.8,30.17,WSW,255,10.0,13.0,61,0.00,,---,0.00,367.00,VWS V14.01,2013-01-05 15:32:00,
2013-01-05 10:35:00,39.0,27.1,30.18,West,265,11.0,19.0,62,0.00,,---,0.00,376.00,VWS V14.01,2013-01-05 15:35:00,
2013-01-05 10:37:00,39.0,27.1,30.17,WNW,282,12.0,18.0,62,0.00,,---,0.00,376.00,VWS V14.01,2013-01-05 15:37:00,
2013-01-05 10:40:00,39.1,27.2,30.17,WNW,286,6.0,18.0,62,0.00,,---,0.00,383.00,VWS V14.01,2013-01-05 15:40:00,
2013-01-05 10:42:00,39.1,27.2,30.17,West,261,8.0,12.0,62,0.00,,---,0.00,385.00,VWS V14.01,2013-01-05 15:42:00,
2013-01-05 10:45:00,39.0,26.7,30.17,West,281,8.0,18.0,61,0.00,,---,0.00,390.00,VWS V14.01,2013-01-05 15:45:00,
2013-01-05 10:47:00,39.0,26.7,30.17,WNW,303,9.0,14.0,61,0.00,,---,0.00,388.00,VWS V14.01,2013-01-05 15:47:00,
2013-01-05 10:50:00,39.0,27.1,30.17,WNW,286,15.0,17.0,62,0.00,,---,0.00,394.00,VWS V14.01,2013-01-05 15:50:00,
2013-01-05 10:52:00,39.0,27.1,30.17,WNW,283,7.0,15.0,62,0.00,,---,0.00,394.00,VWS V14.01,2013-01-05 15:52:00,
2013-01-05 10:55:00,39.1,27.2,30.17,West,279,10.0,19.0,62,0.00,,---,0.00,396.00,VWS V14.01,2013-01-05 15:55:00,
2013-01-05 10:57:00,39.1,27.2,30.17,WNW,291,7.0,13.0,62,0.00,,---,0.00,399.00,VWS V14.01,2013-01-05 15:57:00,
2013-01-05 11:00:00,39.0,27.1,30.16,NW,323,9.0,18.0,62,0.00,,---,0.00,404.00,VWS V14.01,2013-01-05 16:00:00,
2013-01-05 11:02:00,39.0,26.7,30.17,WNW,286,8.0,12.0,61,0.00,,---,0.00,403.00,VWS V14.01,2013-01-05 16:02:00,
2013-01-05 11:05:00,39.0,27.1,30.17,WNW,284,10.0,16.0,62,0.00,,---,0.00,410.00,VWS V14.01,2013-01-05 16:05:00,
2013-01-05 11:07:00,39.0,26.7,30.17,WNW,291,5.0,10.0,61,0.00,,---,0.00,411.00,VWS V14.01,2013-01-05 16:07:00,
2013-01-05 11:10:00,39.1,26.8,30.17,WNW,294,3.0,16.0,61,0.00,,---,0.00,415.00,VWS V14.01,2013-01-05 16:10:00,
2013-01-05 11:12:00,39.1,26.8,30.17,West,265,8.0,16.0,61,0.00,,---,0.00,415.00,VWS V14.01,2013-01-05 16:12:00,
2013-01-05 11:15:00,39.2,28.1,30.17,West,279,6.0,16.0,64,0.00,,---,0.00,420.00,VWS V14.01,2013-01-05 16:15:00,
2013-01-05 11:17:00,39.3,27.8,30.18,WNW,292,11.0,20.0,63,0.00,,---,0.00,420.00,VWS V14.01,2013-01-05 16:17:00,
2013-01-05 11:20:00,39.1,26.8,30.17,WNW,290,15.0,20.0,61,0.00,,---,0.00,422.00,VWS V14.01,2013-01-05 16:20:00,
2013-01-05 11:22:00,39.1,26.8,30.17,WNW,290,6.0,15.0,61,0.00,,---,0.00,424.00,VWS V14.01,2013-01-05 16:22:00,
2013-01-05 11:25:00,38.9,27.0,30.17,WSW,252,12.0,18.0,62,0.00,,---,0.00,425.00,VWS V14.01,2013-01-05 16:25:00,
2013-01-05 11:27:00,38.9,27.0,30.17,WNW,291,8.0,12.0,62,0.00,,---,0.00,425.00,VWS V14.01,2013-01-05 16:27:00,
2013-01-05 11:30:00,39.2,27.7,30.17,WNW,286,11.0,17.0,63,0.00,,---,0.00,425.00,VWS V14.01,2013-01-05 16:30:00,
2013-01-05 11:32:00,39.2,27.7,30.17,WNW,294,5.0,11.0,63,0.00,,---,0.00,424.00,VWS V14.01,2013-01-05 16:32:00,
2013-01-05 11:35:00,39.2,27.7,30.16,NW,314,5.0,18.0,63,0.00,,---,0.00,427.00,VWS V14.01,2013-01-05 16:35:00,
2013-01-05 11:37:00,39.2,27.7,30.16,WNW,290,9.0,9.0,63,0.00,,---,0.00,429.00,VWS V14.01,2013-01-05 16:37:00,
2013-01-05 11:40:00,39.1,27.6,30.16,WNW,284,14.0,18.0,63,0.00,,---,0.00,427.00,VWS V14.01,2013-01-05 16:40:00,
2013-01-05 11:42:00,39.2,27.3,30.16,West,272,12.0,16.0,62,0.00,,---,0.00,434.00,VWS V14.01,2013-01-05 16:42:00,
2013-01-05 11:45:00,39.2,27.3,30.16,West,281,7.0,17.0,62,0.00,,---,0.00,434.00,VWS V14.01,2013-01-05 16:45:00,
2013-01-05 11:47:00,39.2,27.7,30.16,WNW,288,7.0,14.0,63,0.00,,---,0.00,434.00,VWS V14.01,2013-01-05 16:47:00,
2013-01-05 11:50:00,39.2,27.7,30.16,WNW,291,6.0,16.0,63,0.00,,---,0.00,434.00,VWS V14.01,2013-01-05 16:50:00,
2013-01-05 11:52:00,39.2,27.7,30.16,WNW,282,9.0,12.0,63,0.00,,---,0.00,434.00,VWS V14.01,2013-01-05 16:52:00,
2013-01-05 11:55:00,39.3,27.8,30.17,WNW,292,11.0,17.0,63,0.00,,---,0.00,434.00,VWS V14.01,2013-01-05 16:55:00,
2013-01-05 11:57:00,39.3,27.8,30.17,NW,313,6.0,12.0,63,0.00,,---,0.00,425.00,VWS V14.01,2013-01-05 16:57:00,
2013-01-05 12:00:00,39.3,27.8,30.17,WNW,296,5.0,16.0,63,0.00,,---,0.00,429.00,VWS V14.01,2013-01-05 17:00:00,
2013-01-05 12:02:00,39.3,27.8,30.17,WNW,296,3.0,15.0,63,0.00,,---,0.00,457.00,VWS V14.01,2013-01-05 17:02:00,
2013-01-05 12:05:00,39.3,27.8,30.17,WNW,285,9.0,16.0,63,0.00,,---,0.00,441.00,VWS V14.01,2013-01-05 17:05:00,
2013-01-05 12:07:00,39.3,27.8,30.17,West,273,12.0,12.0,63,0.00,,---,0.00,441.00,VWS V14.01,2013-01-05 17:07:00,
2013-01-05 12:10:00,39.3,27.8,30.17,WSW,248,12.0,17.0,63,0.00,,---,0.00,443.00,VWS V14.01,2013-01-05 17:10:00,
2013-01-05 12:12:00,39.3,27.8,30.17,WNW,299,5.0,12.0,63,0.00,,---,0.00,441.00,VWS V14.01,2013-01-05 17:12:00,
2013-01-05 12:15:00,39.5,27.6,30.16,West,259,12.0,19.0,62,0.00,,---,0.00,431.00,VWS V14.01,2013-01-05 17:15:00,
2013-01-05 12:17:00,39.5,27.6,30.16,WNW,303,4.0,12.0,62,0.00,,---,0.00,431.00,VWS V14.01,2013-01-05 17:17:00,
2013-01-05 12:20:00,39.7,27.8,30.16,West,264,6.0,17.0,62,0.00,,---,0.00,429.00,VWS V14.01,2013-01-05 17:20:00,
2013-01-05 12:22:00,39.7,27.8,30.16,WSW,252,10.0,10.0,62,0.00,,---,0.00,429.00,VWS V14.01,2013-01-05 17:22:00,
2013-01-05 12:25:00,39.7,27.8,30.16,West,274,4.0,12.0,62,0.00,,---,0.00,406.00,VWS V14.01,2013-01-05 17:25:00,
2013-01-05 12:27:00,39.7,27.8,30.16,West,277,11.0,11.0,62,0.00,,---,0.00,425.00,VWS V14.01,2013-01-05 17:27:00,
2013-01-05 12:30:00,39.8,27.9,30.16,West,271,9.0,14.0,62,0.00,,---,0.00,424.00,VWS V14.01,2013-01-05 17:30:00,
2013-01-05 12:32:00,39.8,27.9,30.16,West,277,6.0,11.0,62,0.00,,---,0.00,429.00,VWS V14.01,2013-01-05 17:32:00,
2013-01-05 12:35:00,40.1,28.1,30.16,NW,321,6.0,12.0,62,0.00,,---,0.00,425.00,VWS V14.01,2013-01-05 17:35:00,
2013-01-05 12:37:00,40.1,28.1,30.15,WNW,301,3.0,7.0,62,0.00,,---,0.00,425.00,VWS V14.01,2013-01-05 17:37:00,
2013-01-05 12:40:00,40.2,27.8,30.15,WNW,283,9.0,13.0,61,0.00,,---,0.00,424.00,VWS V14.01,2013-01-05 17:40:00,
2013-01-05 12:42:00,40.3,27.5,30.15,West,266,6.0,13.0,60,0.00,,---,0.00,422.00,VWS V14.01,2013-01-05 17:42:00,
2013-01-05 12:45:00,40.5,28.1,30.14,WNW,282,11.0,13.0,61,0.00,,---,0.00,417.00,VWS V14.01,2013-01-05 17:45:00,
2013-01-05 12:47:00,40.5,28.1,30.14,WSW,255,6.0,11.0,61,0.00,,---,0.00,417.00,VWS V14.01,2013-01-05 17:47:00,
2013-01-05 12:50:00,40.9,28.1,30.15,WNW,290,17.0,17.0,60,0.00,,---,0.00,418.00,VWS V14.01,2013-01-05 17:50:00,
2013-01-05 12:52:00,41.0,27.4,30.15,West,277,18.0,23.0,58,0.00,,---,0.00,418.00,VWS V14.01,2013-01-05 17:52:00,
2013-01-05 12:55:00,41.0,26.5,30.15,West,276,9.0,23.0,56,0.00,,---,0.00,417.00,VWS V14.01,2013-01-05 17:55:00,
2013-01-05 12:57:00,41.1,26.6,30.16,WNW,287,11.0,17.0,56,0.00,,---,0.00,417.00,VWS V14.01,2013-01-05 17:57:00,
2013-01-05 13:00:00,41.4,26.9,30.15,WNW,286,8.0,17.0,56,0.00,,---,0.00,420.00,VWS V14.01,2013-01-05 18:00:00,
2013-01-05 13:02:00,41.5,27.0,30.15,WNW,284,16.0,16.0,56,0.00,,---,0.00,420.00,VWS V14.01,2013-01-05 18:02:00,
2013-01-05 13:05:00,41.5,26.1,30.15,West,272,11.0,20.0,54,0.00,,---,0.00,424.00,VWS V14.01,2013-01-05 18:05:00,
2013-01-05 13:07:00,41.5,26.1,30.15,NW,305,10.0,11.0,54,0.00,,---,0.00,408.00,VWS V14.01,2013-01-05 18:07:00,
2013-01-05 13:10:00,41.3,25.9,30.15,West,269,12.0,19.0,54,0.00,,---,0.00,207.00,VWS V14.01,2013-01-05 18:10:00,
2013-01-05 13:12:00,41.3,25.9,30.15,WNW,291,8.0,17.0,54,0.00,,---,0.00,413.00,VWS V14.01,2013-01-05 18:12:00,
2013-01-05 13:15:00,41.4,26.5,30.15,NW,309,7.0,19.0,55,0.00,,---,0.00,420.00,VWS V14.01,2013-01-05 18:15:00,
2013-01-05 13:17:00,41.4,26.5,30.14,WNW,302,6.0,7.0,55,0.00,,---,0.00,420.00,VWS V14.01,2013-01-05 18:17:00,
2013-01-05 13:20:00,41.6,25.8,30.15,WNW,298,13.0,16.0,53,0.00,,---,0.00,415.00,VWS V14.01,2013-01-05 18:20:00,
2013-01-05 13:22:00,41.6,25.8,30.15,WNW,303,10.0,13.0,53,0.00,,---,0.00,415.00,VWS V14.01,2013-01-05 18:22:00,
2013-01-05 13:25:00,41.6,26.2,30.15,WNW,298,11.0,16.0,54,0.00,,---,0.00,362.00,VWS V14.01,2013-01-05 18:25:00,
2013-01-05 13:27:00,41.6,26.6,30.14,NW,309,13.0,16.0,55,0.00,,---,0.00,362.00,VWS V14.01,2013-01-05 18:27:00,
2013-01-05 13:30:00,41.6,26.6,30.14,WNW,303,9.0,16.0,55,0.00,,---,0.00,373.00,VWS V14.01,2013-01-05 18:30:00,
2013-01-05 13:32:00,41.6,26.6,30.14,NW,309,9.0,11.0,55,0.00,,---,0.00,373.00,VWS V14.01,2013-01-05 18:32:00,
2013-01-05 13:35:00,41.7,25.9,30.14,West,267,15.0,15.0,53,0.00,,---,0.00,392.00,VWS V14.01,2013-01-05 18:35:00,
2013-01-05 13:37:00,41.7,25.9,30.14,WNW,294,11.0,15.0,53,0.00,,---,0.00,396.00,VWS V14.01,2013-01-05 18:37:00,
2013-01-05 13:40:00,41.6,26.2,30.14,NW,313,4.0,18.0,54,0.00,,---,0.00,332.00,VWS V14.01,2013-01-05 18:40:00,
2013-01-05 13:42:00,41.6,26.2,30.14,NW,309,7.0,7.0,54,0.00,,---,0.00,281.00,VWS V14.01,2013-01-05 18:42:00,
2013-01-05 13:45:00,41.4,26.0,30.15,WNW,295,11.0,12.0,54,0.00,,---,0.00,179.00,VWS V14.01,2013-01-05 18:45:00,
2013-01-05 13:47:00,41.4,26.0,30.15,NW,321,6.0,11.0,54,0.00,,---,0.00,120.00,VWS V14.01,2013-01-05 18:47:00,
2013-01-05 13:50:00,41.0,25.6,30.16,West,279,10.0,12.0,54,0.00,,---,0.00,142.00,VWS V14.01,2013-01-05 18:50:00,
2013-01-05 13:52:00,41.0,25.6,30.16,West,276,9.0,10.0,54,0.00,,---,0.00,142.00,VWS V14.01,2013-01-05 18:52:00,
2013-01-05 13:55:00,40.8,25.9,30.16,NW,309,3.0,13.0,55,0.00,,---,0.00,246.00,VWS V14.01,2013-01-05 18:55:00,
2013-01-05 13:57:00,40.8,25.9,30.16,WNW,288,6.0,6.0,55,0.00,,---,0.00,246.00,VWS V14.01,2013-01-05 18:57:00,
2013-01-05 14:00:00,41.0,26.1,30.16,WNW,300,4.0,11.0,55,0.00,,---,0.00,390.00,VWS V14.01,2013-01-05 19:00:00,
2013-01-05 14:02:00,41.0,26.1,30.16,WNW,283,10.0,10.0,55,0.00,,---,0.00,390.00,VWS V14.01,2013-01-05 19:02:00,
2013-01-05 14:05:00,41.3,26.4,30.16,NW,306,11.0,13.0,55,0.00,,---,0.00,403.00,VWS V14.01,2013-01-05 19:05:00,
2013-01-05 14:07:00,41.4,26.5,30.16,NW,304,10.0,11.0,55,0.00,,---,0.00,401.00,VWS V14.01,2013-01-05 19:07:00,
2013-01-05 14:10:00,41.9,26.5,30.16,WNW,298,6.0,13.0,54,0.00,,---,0.00,350.00,VWS V14.01,2013-01-05 19:10:00,
2013-01-05 14:12:00,41.9,26.5,30.16,West,269,13.0,13.0,54,0.00,,---,0.00,343.00,VWS V14.01,2013-01-05 19:12:00,
2013-01-05 14:15:00,42.0,26.1,30.17,West,279,12.0,15.0,53,0.00,,---,0.00,325.00,VWS V14.01,2013-01-05 19:15:00,
2013-01-05 14:17:00,42.0,26.1,30.17,West,275,11.0,12.0,53,0.00,,---,0.00,325.00,VWS V14.01,2013-01-05 19:17:00,
2013-01-05 14:20:00,41.8,26.4,30.17,WNW,299,3.0,12.0,54,0.00,,---,0.00,318.00,VWS V14.01,2013-01-05 19:20:00,
2013-01-05 14:22:00,41.8,26.4,30.17,WNW,297,4.0,4.0,54,0.00,,---,0.00,318.00,VWS V14.01,2013-01-05 19:22:00,
2013-01-05 14:25:00,41.8,25.9,30.17,WNW,285,2.0,10.0,53,0.00,,---,0.00,309.00,VWS V14.01,2013-01-05 19:25:00,
2013-01-05 14:27:00,41.8,25.9,30.17,WNW,284,6.0,6.0,53,0.00,,---,0.00,309.00,VWS V14.01,2013-01-05 19:27:00,
2013-01-05 14:30:00,41.8,26.4,30.17,NW,313,8.0,10.0,54,0.00,,---,0.00,243.00,VWS V14.01,2013-01-05 19:30:00,
2013-01-05 14:32:00,41.8,26.4,30.17,NW,311,6.0,9.0,54,0.00,,---,0.00,243.00,VWS V14.01,2013-01-05 19:32:00,
2013-01-05 14:35:00,41.8,25.9,30.17,NW,311,5.0,12.0,53,0.00,,---,0.00,295.00,VWS V14.01,2013-01-05 19:35:00,
2013-01-05 14:37:00,41.8,25.9,30.17,WNW,302,8.0,8.0,53,0.00,,---,0.00,295.00,VWS V14.01,2013-01-05 19:37:00,
2013-01-05 14:40:00,41.7,25.4,30.17,West,264,5.0,14.0,52,0.00,,---,0.00,279.00,VWS V14.01,2013-01-05 19:40:00,
2013-01-05 14:42:00,41.7,25.4,30.17,West,267,3.0,5.0,52,0.00,,---,0.00,279.00,VWS V14.01,2013-01-05 19:42:00,
2013-01-05 14:45:00,41.7,25.9,30.17,WNW,286,4.0,10.0,53,0.00,,---,0.00,267.00,VWS V14.01,2013-01-05 19:45:00,
2013-01-05 14:47:00,41.7,25.9,30.17,WNW,287,6.0,6.0,53,0.00,,---,0.00,265.00,VWS V14.01,2013-01-05 19:47:00,
2013-01-05 14:50:00,41.5,25.2,30.17,WNW,289,4.0,13.0,52,0.00,,---,0.00,248.00,VWS V14.01,2013-01-05 19:50:00,
2013-01-05 14:51:00,41.4,25.1,30.17,WNW,288,4.0,4.0,52,0.00,,---,0.00,248.00,VWS V14.01,2013-01-05 19:51:00,
2013-01-05 14:55:00,41.4,26.0,30.17,WNW,292,5.0,11.0,54,0.00,,---,0.00,232.00,VWS V14.01,2013-01-05 19:55:00,
2013-01-05 14:56:00,41.4,26.5,30.17,WNW,284,12.0,12.0,55,0.00,,---,0.00,232.00,VWS V14.01,2013-01-05 19:56:00,
2013-01-05 15:00:00,41.4,26.0,30.17,West,279,4.0,14.0,54,0.00,,---,0.00,209.00,VWS V14.01,2013-01-05 20:00:00,
2013-01-05 15:01:00,41.4,26.0,30.17,West,272,8.0,8.0,54,0.00,,---,0.00,209.00,VWS V14.01,2013-01-05 20:01:00,
2013-01-05 15:05:00,41.4,26.5,30.18,West,259,5.0,10.0,55,0.00,,---,0.00,190.00,VWS V14.01,2013-01-05 20:05:00,
2013-01-05 15:06:00,41.4,26.5,30.18,West,261,7.0,7.0,55,0.00,,---,0.00,190.00,VWS V14.01,2013-01-05 20:06:00,
2013-01-05 15:10:00,41.2,25.8,30.18,WNW,300,3.0,7.0,54,0.00,,---,0.00,172.00,VWS V14.01,2013-01-05 20:10:00,
2013-01-05 15:11:00,41.2,25.8,30.18,WSW,249,5.0,5.0,54,0.00,,---,0.00,172.00,VWS V14.01,2013-01-05 20:11:00,
2013-01-05 15:15:00,41.0,26.5,30.18,WNW,295,6.0,11.0,56,0.00,,---,0.00,155.00,VWS V14.01,2013-01-05 20:15:00,
2013-01-05 15:16:00,41.0,26.5,30.18,WNW,295,6.0,11.0,56,0.00,,---,0.00,155.00,VWS V14.01,2013-01-05 20:16:00,
2013-01-05 15:20:00,40.9,25.5,30.18,WNW,303,0.0,10.0,54,0.00,,---,0.00,141.00,VWS V14.01,2013-01-05 20:20:00,
2013-01-05 15:21:00,40.9,25.5,30.18,WNW,303,0.0,10.0,54,0.00,,---,0.00,141.00,VWS V14.01,2013-01-05 20:21:00,
2013-01-05 15:25:00,40.9,26.0,30.17,West,274,5.0,9.0,55,0.00,,---,0.00,127.00,VWS V14.01,2013-01-05 20:25:00,
2013-01-05 15:26:00,40.9,26.0,30.17,West,274,5.0,9.0,55,0.00,,---,0.00,127.00,VWS V14.01,2013-01-05 20:26:00,
2013-01-05 15:30:00,40.7,25.8,30.18,WNW,284,4.0,7.0,55,0.00,,---,0.00,83.00,VWS V14.01,2013-01-05 20:30:00,
2013-01-05 15:31:00,40.7,25.8,30.18,WNW,284,4.0,7.0,55,0.00,,---,0.00,83.00,VWS V14.01,2013-01-05 20:31:00,
2013-01-05 15:35:00,40.5,25.6,30.19,WNW,297,2.0,7.0,55,0.00,,---,0.00,100.00,VWS V14.01,2013-01-05 20:35:00,
2013-01-05 15:36:00,40.5,25.6,30.19,WNW,297,2.0,7.0,55,0.00,,---,0.00,100.00,VWS V14.01,2013-01-05 20:36:00,
2013-01-05 15:40:00,40.5,25.6,30.18,WNW,286,5.0,7.0,55,0.00,,---,0.00,84.00,VWS V14.01,2013-01-05 20:40:00,
2013-01-05 15:41:00,40.5,25.6,30.18,WNW,286,5.0,7.0,55,0.00,,---,0.00,84.00,VWS V14.01,2013-01-05 20:41:00,
2013-01-05 15:45:00,40.4,25.1,30.18,WNW,296,5.0,10.0,54,0.00,,---,0.00,72.00,VWS V14.01,2013-01-05 20:45:00,
2013-01-05 15:46:00,40.4,25.1,30.18,WNW,296,5.0,10.0,54,0.00,,---,0.00,72.00,VWS V14.01,2013-01-05 20:46:00,
2013-01-05 15:50:00,40.3,25.0,30.19,WNW,285,8.0,10.0,54,0.00,,---,0.00,62.00,VWS V14.01,2013-01-05 20:50:00,
2013-01-05 15:51:00,40.3,25.0,30.19,WNW,285,8.0,10.0,54,0.00,,---,0.00,62.00,VWS V14.01,2013-01-05 20:51:00,
2013-01-05 15:55:00,40.2,25.3,30.19,WNW,288,4.0,9.0,55,0.00,,---,0.00,51.00,VWS V14.01,2013-01-05 20:55:00,
2013-01-05 15:56:00,40.2,25.3,30.19,WNW,286,6.0,9.0,55,0.00,,---,0.00,51.00,VWS V14.01,2013-01-05 20:56:00,
2013-01-05 16:00:00,40.0,25.6,30.18,WNW,299,6.0,8.0,56,0.00,,---,0.00,40.00,VWS V14.01,2013-01-05 21:00:00,
2013-01-05 16:01:00,40.0,25.6,30.18,WNW,286,5.0,8.0,56,0.00,,---,0.00,40.00,VWS V14.01,2013-01-05 21:01:00,
2013-01-05 16:05:00,39.9,25.5,30.19,WNW,284,4.0,8.0,56,0.00,,---,0.00,30.00,VWS V14.01,2013-01-05 21:05:00,
2013-01-05 16:06:00,39.9,25.5,30.19,WNW,284,4.0,8.0,56,0.00,,---,0.00,30.00,VWS V14.01,2013-01-05 21:06:00,
2013-01-05 16:10:00,39.6,26.5,30.18,West,280,4.0,7.0,59,0.00,,---,0.00,18.00,VWS V14.01,2013-01-05 21:10:00,
2013-01-05 16:11:00,39.6,26.5,30.18,West,280,4.0,7.0,59,0.00,,---,0.00,18.00,VWS V14.01,2013-01-05 21:11:00,
2013-01-05 16:15:00,39.3,25.8,30.18,WNW,294,5.0,8.0,58,0.00,,---,0.00,12.00,VWS V14.01,2013-01-05 21:15:00,
2013-01-05 16:16:00,39.3,25.8,30.18,WNW,296,5.0,8.0,58,0.00,,---,0.00,12.00,VWS V14.01,2013-01-05 21:16:00,
2013-01-05 16:20:00,39.1,26.0,30.18,WNW,292,2.0,6.0,59,0.00,,---,0.00,9.00,VWS V14.01,2013-01-05 21:20:00,
2013-01-05 16:21:00,39.1,26.0,30.18,WNW,292,2.0,6.0,59,0.00,,---,0.00,9.00,VWS V14.01,2013-01-05 21:21:00,
2013-01-05 16:25:00,38.9,26.2,30.19,WNW,290,0.0,5.0,60,0.00,,---,0.00,5.00,VWS V14.01,2013-01-05 21:25:00,
2013-01-05 16:26:00,38.9,26.2,30.19,WNW,290,1.0,5.0,60,0.00,,---,0.00,5.00,VWS V14.01,2013-01-05 21:26:00,
2013-01-05 16:30:00,38.3,26.8,30.19,WNW,287,4.0,5.0,63,0.00,,---,0.00,0.00,VWS V14.01,2013-01-05 21:30:00,
2013-01-05 16:31:00,38.3,26.8,30.19,WNW,287,5.0,5.0,63,0.00,,---,0.00,0.00,VWS V14.01,2013-01-05 21:31:00,
2013-01-05 16:35:00,37.9,26.4,30.19,WNW,282,1.0,6.0,63,0.00,,---,0.00,0.00,VWS V14.01,2013-01-05 21:35:00,
2013-01-05 16:36:00,37.9,26.5,30.19,WNW,283,5.0,6.0,63,0.00,,---,0.00,0.00,VWS V14.01,2013-01-05 21:36:00,
2013-01-05 16:40:00,37.9,26.4,30.19,West,271,0.0,5.0,63,0.00,,---,0.00,0.00,VWS V14.01,2013-01-05 21:40:00,
2013-01-05 16:41:00,37.9,26.5,30.19,West,271,0.0,5.0,63,0.00,,---,0.00,0.00,VWS V14.01,2013-01-05 21:41:00,
2013-01-05 16:45:00,37.8,26.4,30.19,West,271,0.0,3.0,63,0.00,,---,0.00,0.00,VWS V14.01,2013-01-05 21:45:00,
2013-01-05 16:46:00,37.8,26.4,30.19,West,271,0.0,3.0,63,0.00,,---,0.00,0.00,VWS V14.01,2013-01-05 21:46:00,
2013-01-05 16:50:00,37.7,26.6,30.19,West,271,2.0,3.0,64,0.00,,---,0.00,0.00,VWS V14.01,2013-01-05 21:50:00,
2013-01-05 16:51:00,37.7,26.6,30.19,West,271,3.0,3.0,64,0.00,,---,0.00,0.00,VWS V14.01,2013-01-05 21:51:00,
2013-01-05 16:55:00,37.3,27.0,30.19,West,275,1.0,6.0,66,0.00,,---,0.00,0.00,VWS V14.01,2013-01-05 21:55:00,
2013-01-05 16:56:00,37.3,27.0,30.19,West,275,0.0,6.0,66,0.00,,---,0.00,0.00,VWS V14.01,2013-01-05 21:56:00,
2013-01-05 17:00:00,37.2,26.9,30.19,West,268,0.0,5.0,66,0.00,,---,0.00,0.00,VWS V14.01,2013-01-05 22:00:00,
2013-01-05 17:01:00,37.2,26.9,30.19,West,268,0.0,5.0,66,0.00,,---,0.00,0.00,VWS V14.01,2013-01-05 22:01:00,
2013-01-05 17:05:00,36.8,26.9,30.20,West,268,0.0,0.0,67,0.00,,---,0.00,0.00,VWS V14.01,2013-01-05 22:05:00,
2013-01-05 17:06:00,36.8,26.9,30.20,West,268,0.0,0.0,67,0.00,,---,0.00,0.00,VWS V14.01,2013-01-05 22:06:00,
2013-01-05 17:10:00,37.0,26.7,30.19,West,268,3.0,4.0,66,0.00,,---,0.00,0.00,VWS V14.01,2013-01-05 22:10:00,
2013-01-05 17:11:00,37.0,26.7,30.19,West,268,4.0,4.0,66,0.00,,---,0.00,0.00,VWS V14.01,2013-01-05 22:11:00,
2013-01-05 17:15:00,37.0,27.1,30.20,West,267,2.0,5.0,67,0.00,,---,0.00,0.00,VWS V14.01,2013-01-05 22:15:00,
2013-01-05 17:16:00,37.0,27.1,30.20,West,267,5.0,5.0,67,0.00,,---,0.00,0.00,VWS V14.01,2013-01-05 22:16:00,
2013-01-05 17:20:00,37.0,26.7,30.20,West,267,0.0,5.0,66,0.00,,---,0.00,0.00,VWS V14.01,2013-01-05 22:20:00,
2013-01-05 17:21:00,37.0,26.7,30.20,West,267,0.0,5.0,66,0.00,,---,0.00,0.00,VWS V14.01,2013-01-05 22:21:00,
2013-01-05 17:25:00,37.1,26.4,30.21,West,267,0.0,3.0,65,0.00,,---,0.00,0.00,VWS V14.01,2013-01-05 22:25:00,
2013-01-05 17:26:00,37.1,26.4,30.21,West,267,0.0,3.0,65,0.00,,---,0.00,0.00,VWS V14.01,2013-01-05 22:26:00,
2013-01-05 17:30:00,37.1,26.8,30.21,West,269,2.0,4.0,66,0.00,,---,0.00,0.00,VWS V14.01,2013-01-05 22:30:00,
2013-01-05 17:31:00,37.1,26.8,30.21,West,267,3.0,4.0,66,0.00,,---,0.00,0.00,VWS V14.01,2013-01-05 22:31:00,
2013-01-05 17:35:00,37.0,26.7,30.21,West,271,2.0,4.0,66,0.00,,---,0.00,0.00,VWS V14.01,2013-01-05 22:35:00,
2013-01-05 17:36:00,36.9,26.6,30.21,West,271,0.0,4.0,66,0.00,,---,0.00,0.00,VWS V14.01,2013-01-05 22:36:00,
2013-01-05 17:40:00,37.1,26.8,30.21,West,271,3.0,3.0,66,0.00,,---,0.00,0.00,VWS V14.01,2013-01-05 22:40:00,
2013-01-05 17:41:00,37.1,26.8,30.21,West,271,1.0,2.0,66,0.00,,---,0.00,0.00,VWS V14.01,2013-01-05 22:41:00,
2013-01-05 17:45:00,37.2,26.5,30.21,West,271,0.0,3.0,65,0.00,,---,0.00,0.00,VWS V14.01,2013-01-05 22:45:00,
2013-01-05 17:46:00,37.2,26.5,30.21,West,271,0.0,3.0,65,0.00,,---,0.00,0.00,VWS V14.01,2013-01-05 22:46:00,
2013-01-05 17:50:00,37.3,26.6,30.21,West,271,0.0,2.0,65,0.00,,---,0.00,0.00,VWS V14.01,2013-01-05 22:50:00,
2013-01-05 17:51:00,37.2,26.5,30.21,West,271,0.0,2.0,65,0.00,,---,0.00,0.00,VWS V14.01,2013-01-05 22:51:00,
2013-01-05 17:55:00,37.3,26.6,30.21,West,271,0.0,3.0,65,0.00,,---,0.00,0.00,VWS V14.01,2013-01-05 22:55:00,
2013-01-05 17:56:00,37.3,26.6,30.21,West,271,2.0,2.0,65,0.00,,---,0.00,0.00,VWS V14.01,2013-01-05 22:56:00,
2013-01-05 18:00:00,37.0,26.7,30.21,West,271,0.0,0.0,66,0.00,,---,0.00,0.00,VWS V14.01,2013-01-05 23:00:00,
2013-01-05 18:01:00,37.1,26.8,30.21,West,271,0.0,0.0,66,0.00,,---,0.00,0.00,VWS V14.01,2013-01-05 23:01:00,
2013-01-05 18:05:00,35.8,27.3,30.22,West,267,0.0,4.0,71,0.00,,---,0.00,0.00,VWS V14.01,2013-01-05 23:05:00,
2013-01-05 18:06:00,35.8,27.0,30.22,West,268,0.0,4.0,70,0.00,,---,0.00,0.00,VWS V14.01,2013-01-05 23:06:00,
2013-01-05 18:10:00,35.6,27.5,30.22,SW,226,1.0,5.0,72,0.00,,---,0.00,0.00,VWS V14.01,2013-01-05 23:10:00,
2013-01-05 18:11:00,35.5,27.4,30.22,SW,225,1.0,5.0,72,0.00,,---,0.00,0.00,VWS V14.01,2013-01-05 23:11:00,
2013-01-05 18:15:00,36.1,28.3,30.22,WSW,240,0.0,5.0,73,0.00,,---,0.00,0.00,VWS V14.01,2013-01-05 23:15:00,
2013-01-05 18:16:00,36.1,28.3,30.22,WSW,240,2.0,5.0,73,0.00,,---,0.00,0.00,VWS V14.01,2013-01-05 23:16:00,
2013-01-05 18:20:00,36.2,28.4,30.22,WSW,240,0.0,4.0,73,0.00,,---,0.00,0.00,VWS V14.01,2013-01-05 23:20:00,
2013-01-05 18:21:00,36.2,28.4,30.22,WSW,240,0.0,4.0,73,0.00,,---,0.00,0.00,VWS V14.01,2013-01-05 23:21:00,
2013-01-05 18:25:00,35.2,27.8,30.22,SW,218,3.0,3.0,74,0.00,,---,0.00,0.00,VWS V14.01,2013-01-05 23:25:00,
2013-01-05 18:26:00,35.3,27.9,30.22,SW,219,3.0,3.0,74,0.00,,---,0.00,0.00,VWS V14.01,2013-01-05 23:26:00,
2013-01-05 18:30:00,34.9,27.8,30.22,SW,219,0.0,4.0,75,0.00,,---,0.00,0.00,VWS V14.01,2013-01-05 23:30:00,
2013-01-05 18:31:00,35.0,27.9,30.22,SW,219,0.0,4.0,75,0.00,,---,0.00,0.00,VWS V14.01,2013-01-05 23:31:00,
2013-01-05 18:35:00,35.1,28.0,30.22,SW,219,0.0,0.0,75,0.00,,---,0.00,0.00,VWS V14.01,2013-01-05 23:35:00,
2013-01-05 18:36:00,35.1,28.0,30.22,SW,219,0.0,0.0,75,0.00,,---,0.00,0.00,VWS V14.01,2013-01-05 23:36:00,
2013-01-05 18:40:00,35.1,28.0,30.23,SW,219,0.0,0.0,75,0.00,,---,0.00,0.00,VWS V14.01,2013-01-05 23:40:00,
2013-01-05 18:41:00,35.2,28.1,30.23,SW,218,0.0,0.0,75,0.00,,---,0.00,0.00,VWS V14.01,2013-01-05 23:41:00,
2013-01-05 18:45:00,34.7,27.9,30.23,SW,219,0.0,0.0,76,0.00,,---,0.00,0.00,VWS V14.01,2013-01-05 23:45:00,
2013-01-05 18:46:00,34.7,27.9,30.23,SW,219,0.0,0.0,76,0.00,,---,0.00,0.00,VWS V14.01,2013-01-05 23:46:00,
2013-01-05 18:50:00,34.5,27.7,30.23,SW,219,0.0,0.0,76,0.00,,---,0.00,0.00,VWS V14.01,2013-01-05 23:50:00,
2013-01-05 18:51:00,34.4,27.6,30.23,SW,219,0.0,0.0,76,0.00,,---,0.00,0.00,VWS V14.01,2013-01-05 23:51:00,
2013-01-05 18:55:00,34.0,27.2,30.23,SW,219,0.0,0.0,76,0.00,,---,0.00,0.00,VWS V14.01,2013-01-05 23:55:00,
2013-01-05 18:56:00,34.1,27.3,30.23,SW,219,0.0,0.0,76,0.00,,---,0.00,0.00,VWS V14.01,2013-01-05 23:56:00,
2013-01-05 19:00:00,33.7,27.6,30.23,SW,219,0.0,0.0,78,0.00,,---,0.00,0.00,VWS V14.01,2013-01-06 00:00:00,
2013-01-05 19:01:00,33.7,27.6,30.23,SW,218,0.0,0.0,78,0.00,,---,0.00,0.00,VWS V14.01,2013-01-06 00:01:00,
2013-01-05 19:05:00,32.6,26.5,30.23,SW,218,1.0,1.0,78,0.00,,---,0.00,0.00,VWS V14.01,2013-01-06 00:05:00,
2013-01-05 19:06:00,32.7,26.6,30.23,SW,218,0.0,0.0,78,0.00,,---,0.00,0.00,VWS V14.01,2013-01-06 00:06:00,
2013-01-05 19:10:00,32.9,27.4,30.24,SW,219,0.0,1.0,80,0.00,,---,0.00,0.00,VWS V14.01,2013-01-06 00:10:00,
2013-01-05 19:11:00,32.8,27.6,30.24,SW,219,0.0,1.0,81,0.00,,---,0.00,0.00,VWS V14.01,2013-01-06 00:11:00,
2013-01-05 19:15:00,32.7,27.8,30.23,SW,218,0.0,0.0,82,0.00,,---,0.00,0.00,VWS V14.01,2013-01-06 00:15:00,
2013-01-05 19:16:00,32.6,27.4,30.23,SW,219,0.0,0.0,81,0.00,,---,0.00,0.00,VWS V14.01,2013-01-06 00:16:00,
2013-01-05 19:20:00,33.7,28.8,30.24,SW,218,1.0,3.0,82,0.00,,---,0.00,0.00,VWS V14.01,2013-01-06 00:20:00,
2013-01-05 19:21:00,33.6,28.7,30.24,SW,219,1.0,3.0,82,0.00,,---,0.00,0.00,VWS V14.01,2013-01-06 00:21:00,
2013-01-05 19:25:00,33.7,28.8,30.24,SW,218,0.0,2.0,82,0.00,,---,0.00,0.00,VWS V14.01,2013-01-06 00:25:00,
2013-01-05 19:26:00,33.7,28.8,30.24,SW,219,0.0,2.0,82,0.00,,---,0.00,0.00,VWS V14.01,2013-01-06 00:26:00,
2013-01-05 19:30:00,33.9,29.0,30.24,SW,218,0.0,0.0,82,0.00,,---,0.00,0.00,VWS V14.01,2013-01-06 00:30:00,
2013-01-05 19:31:00,33.9,29.0,30.24,SW,219,0.0,0.0,82,0.00,,---,0.00,0.00,VWS V14.01,2013-01-06 00:31:00,
2013-01-05 19:35:00,34.0,29.1,30.24,SW,219,0.0,0.0,82,0.00,,---,0.00,0.00,VWS V14.01,2013-01-06 00:35:00,
2013-01-05 19:36:00,34.0,29.1,30.24,SW,218,0.0,0.0,82,0.00,,---,0.00,0.00,VWS V14.01,2013-01-06 00:36:00,
2013-01-05 19:40:00,33.5,28.3,30.23,SW,219,0.0,2.0,81,0.00,,---,0.00,0.00,VWS V14.01,2013-01-06 00:40:00,
2013-01-05 19:41:00,33.7,28.2,30.23,SW,219,0.0,2.0,80,0.00,,---,0.00,0.00,VWS V14.01,2013-01-06 00:41:00,
2013-01-05 19:45:00,33.3,28.4,30.22,SW,218,0.0,0.0,82,0.00,,---,0.00,0.00,VWS V14.01,2013-01-06 00:45:00,
2013-01-05 19:46:00,33.4,28.5,30.22,SW,218,0.0,0.0,82,0.00,,---,0.00,0.00,VWS V14.01,2013-01-06 00:46:00,
2013-01-05 19:50:00,31.9,27.0,30.23,SW,219,0.0,1.0,82,0.00,,---,0.00,0.00,VWS V14.01,2013-01-06 00:50:00,
2013-01-05 19:51:00,32.1,26.9,30.23,SW,219,0.0,1.0,81,0.00,,---,0.00,0.00,VWS V14.01,2013-01-06 00:51:00,
2013-01-05 19:55:00,33.2,28.0,30.23,SW,218,0.0,0.0,81,0.00,,---,0.00,0.00,VWS V14.01,2013-01-06 00:55:00,
2013-01-05 19:56:00,33.0,28.1,30.23,SW,219,0.0,0.0,82,0.00,,---,0.00,0.00,VWS V14.01,2013-01-06 00:56:00,
2013-01-05 20:00:00,34.0,27.6,30.22,SW,220,0.0,2.0,77,0.00,,---,0.00,0.00,VWS V14.01,2013-01-06 01:00:00,
2013-01-05 20:01:00,33.9,27.5,30.22,SW,220,2.0,2.0,77,0.00,,---,0.00,0.00,VWS V14.01,2013-01-06 01:01:00,
2013-01-05 20:05:00,34.4,26.3,30.21,SW,221,0.0,2.0,72,0.00,,---,0.00,0.00,VWS V14.01,2013-01-06 01:05:00,
2013-01-05 20:06:00,34.4,26.3,30.21,SW,221,0.0,2.0,72,0.00,,---,0.00,0.00,VWS V14.01,2013-01-06 01:06:00,
2013-01-05 20:10:00,33.9,25.5,30.22,SW,221,0.0,2.0,71,0.00,,---,0.00,0.00,VWS V14.01,2013-01-06 01:10:00,
2013-01-05 20:11:00,34.0,25.6,30.22,SW,221,0.0,2.0,71,0.00,,---,0.00,0.00,VWS V14.01,2013-01-06 01:11:00,
2013-01-05 20:15:00,33.8,25.1,30.23,SW,221,0.0,0.0,70,0.00,,---,0.00,0.00,VWS V14.01,2013-01-06 01:15:00,
2013-01-05 20:16:00,33.8,25.1,30.23,SW,221,0.0,0.0,70,0.00,,---,0.00,0.00,VWS V14.01,2013-01-06 01:16:00,
2013-01-05 20:20:00,33.8,24.7,30.22,SW,222,0.0,2.0,69,0.00,,---,0.00,0.00,VWS V14.01,2013-01-06 01:20:00,
2013-01-05 20:21:00,33.9,24.8,30.22,SW,222,0.0,2.0,69,0.00,,---,0.00,0.00,VWS V14.01,2013-01-06 01:21:00,
2013-01-05 20:25:00,33.9,24.8,30.23,SW,222,0.0,0.0,69,0.00,,---,0.00,0.00,VWS V14.01,2013-01-06 01:25:00,
2013-01-05 20:26:00,34.0,24.9,30.23,SW,222,0.0,0.0,69,0.00,,---,0.00,0.00,VWS V14.01,2013-01-06 01:26:00,
2013-01-05 20:30:00,33.2,23.8,30.23,SW,222,0.0,0.0,68,0.00,,---,0.00,0.00,VWS V14.01,2013-01-06 01:30:00,
2013-01-05 20:31:00,33.7,24.3,30.23,SW,222,0.0,0.0,68,0.00,,---,0.00,0.00,VWS V14.01,2013-01-06 01:31:00,
2013-01-05 20:35:00,32.8,24.1,30.22,SW,222,0.0,0.0,70,0.00,,---,0.00,0.00,VWS V14.01,2013-01-06 01:35:00,
2013-01-05 20:36:00,32.8,24.1,30.22,SW,222,0.0,0.0,70,0.00,,---,0.00,0.00,VWS V14.01,2013-01-06 01:36:00,
2013-01-05 20:40:00,32.8,23.8,30.23,SW,222,0.0,0.0,69,0.00,,---,0.00,0.00,VWS V14.01,2013-01-06 01:40:00,
2013-01-05 20:41:00,33.1,24.4,30.23,SW,222,0.0,0.0,70,0.00,,---,0.00,0.00,VWS V14.01,2013-01-06 01:41:00,
2013-01-05 20:45:00,33.4,25.0,30.22,SW,222,0.0,0.0,71,0.00,,---,0.00,0.00,VWS V14.01,2013-01-06 01:45:00,
2013-01-05 20:46:00,33.3,24.9,30.22,SW,222,0.0,0.0,71,0.00,,---,0.00,0.00,VWS V14.01,2013-01-06 01:46:00,
2013-01-05 20:50:00,34.1,25.0,30.22,SW,222,0.0,0.0,69,0.00,,---,0.00,0.00,VWS V14.01,2013-01-06 01:50:00,
2013-01-05 20:51:00,34.0,24.9,30.22,SW,222,0.0,0.0,69,0.00,,---,0.00,0.00,VWS V14.01,2013-01-06 01:51:00,
2013-01-05 20:55:00,34.1,24.7,30.22,SW,222,0.0,0.0,68,0.00,,---,0.00,0.00,VWS V14.01,2013-01-06 01:55:00,
2013-01-05 20:56:00,34.1,24.7,30.22,SW,222,0.0,0.0,68,0.00,,---,0.00,0.00,VWS V14.01,2013-01-06 01:56:00,
2013-01-05 21:00:00,34.1,24.7,30.22,SW,222,0.0,0.0,68,0.00,,---,0.00,0.00,VWS V14.01,2013-01-06 02:00:00,
2013-01-05 21:01:00,34.1,24.7,30.22,SW,222,0.0,0.0,68,0.00,,---,0.00,0.00,VWS V14.01,2013-01-06 02:01:00,
2013-01-05 21:05:00,33.9,24.5,30.22,SW,222,0.0,0.0,68,0.00,,---,0.00,0.00,VWS V14.01,2013-01-06 02:05:00,
2013-01-05 21:06:00,33.9,24.5,30.22,SW,222,0.0,0.0,68,0.00,,---,0.00,0.00,VWS V14.01,2013-01-06 02:06:00,
2013-01-05 21:10:00,33.5,24.1,30.22,SSW,213,2.0,3.0,68,0.00,,---,0.00,0.00,VWS V14.01,2013-01-06 02:10:00,
2013-01-05 21:11:00,33.5,24.1,30.22,SSW,213,3.0,3.0,68,0.00,,---,0.00,0.00,VWS V14.01,2013-01-06 02:11:00,
2013-01-05 21:15:00,34.1,24.3,30.22,SSW,213,0.0,2.0,67,0.00,,---,0.00,0.00,VWS V14.01,2013-01-06 02:15:00,
2013-01-05 21:16:00,34.0,24.2,30.22,SSW,213,0.0,2.0,67,0.00,,---,0.00,0.00,VWS V14.01,2013-01-06 02:16:00,
2013-01-05 21:20:00,32.9,22.8,30.21,SW,214,2.0,3.0,66,0.00,,---,0.00,0.00,VWS V14.01,2013-01-06 02:20:00,
2013-01-05 21:21:00,33.2,23.1,30.21,SW,214,2.0,3.0,66,0.00,,---,0.00,0.00,VWS V14.01,2013-01-06 02:21:00,
2013-01-05 21:25:00,31.9,23.2,30.22,SW,214,0.0,3.0,70,0.00,,---,0.00,0.00,VWS V14.01,2013-01-06 02:25:00,
2013-01-05 21:26:00,31.9,23.2,30.22,SW,214,0.0,3.0,70,0.00,,---,0.00,0.00,VWS V14.01,2013-01-06 02:26:00,
2013-01-05 21:30:00,31.0,23.0,30.21,SW,214,0.0,0.0,72,0.00,,---,0.00,0.00,VWS V14.01,2013-01-06 02:30:00,
2013-01-05 21:31:00,31.1,22.8,30.21,SW,214,0.0,0.0,71,0.00,,---,0.00,0.00,VWS V14.01,2013-01-06 02:31:00,
2013-01-05 21:35:00,31.9,23.9,30.21,SW,214,0.0,0.0,72,0.00,,---,0.00,0.00,VWS V14.01,2013-01-06 02:35:00,
2013-01-05 21:36:00,31.7,23.7,30.21,SW,214,0.0,0.0,72,0.00,,---,0.00,0.00,VWS V14.01,2013-01-06 02:36:00,
2013-01-05 21:40:00,32.5,23.8,30.21,SW,214,0.0,0.0,70,0.00,,---,0.00,0.00,VWS V14.01,2013-01-06 02:40:00,
2013-01-05 21:41:00,32.4,23.7,30.21,SW,214,0.0,0.0,70,0.00,,---,0.00,0.00,VWS V14.01,2013-01-06 02:41:00,
2013-01-05 21:45:00,32.8,24.1,30.21,SW,214,0.0,0.0,70,0.00,,---,0.00,0.00,VWS V14.01,2013-01-06 02:45:00,
2013-01-05 21:46:00,32.7,24.0,30.21,SW,214,0.0,0.0,70,0.00,,---,0.00,0.00,VWS V14.01,2013-01-06 02:46:00,
2013-01-05 21:50:00,32.4,23.7,30.21,SW,214,0.0,0.0,70,0.00,,---,0.00,0.00,VWS V14.01,2013-01-06 02:50:00,
2013-01-05 21:51:00,32.4,23.4,30.21,SW,214,0.0,0.0,69,0.00,,---,0.00,0.00,VWS V14.01,2013-01-06 02:51:00,
2013-01-05 21:55:00,32.8,23.8,30.21,SW,225,0.0,3.0,69,0.00,,---,0.00,0.00,VWS V14.01,2013-01-06 02:55:00,
2013-01-05 21:56:00,32.8,23.8,30.21,SW,225,1.0,3.0,69,0.00,,---,0.00,0.00,VWS V14.01,2013-01-06 02:56:00,
2013-01-05 22:00:00,33.1,24.0,30.21,SW,225,0.0,0.0,69,0.00,,---,0.00,0.00,VWS V14.01,2013-01-06 03:00:00,
2013-01-05 22:01:00,33.0,24.3,30.21,SW,225,0.0,0.0,70,0.00,,---,0.00,0.00,VWS V14.01,2013-01-06 03:01:00,
2013-01-05 22:05:00,33.6,24.2,30.22,SW,225,0.0,0.0,68,0.00,,---,0.00,0.00,VWS V14.01,2013-01-06 03:05:00,
2013-01-05 22:06:00,33.5,24.4,30.22,SW,225,0.0,0.0,69,0.00,,---,0.00,0.00,VWS V14.01,2013-01-06 03:06:00,
2013-01-05 22:10:00,33.7,23.9,30.21,SW,225,0.0,2.0,67,0.00,,---,0.00,0.00,VWS V14.01,2013-01-06 03:10:00,
2013-01-05 22:11:00,33.7,23.9,30.21,SW,225,0.0,2.0,67,0.00,,---,0.00,0.00,VWS V14.01,2013-01-06 03:11:00,
2013-01-05 22:15:00,33.4,23.6,30.21,SW,226,0.0,0.0,67,0.00,,---,0.00,0.00,VWS V14.01,2013-01-06 03:15:00,
2013-01-05 22:16:00,33.4,23.6,30.21,SW,226,0.0,0.0,67,0.00,,---,0.00,0.00,VWS V14.01,2013-01-06 03:16:00,
2013-01-05 22:20:00,33.1,23.7,30.21,SW,226,0.0,1.0,68,0.00,,---,0.00,0.00,VWS V14.01,2013-01-06 03:20:00,
2013-01-05 22:21:00,33.2,23.8,30.21,SW,226,0.0,1.0,68,0.00,,---,0.00,0.00,VWS V14.01,2013-01-06 03:21:00,
2013-01-05 22:25:00,32.1,22.8,30.21,SW,226,0.0,2.0,68,0.00,,---,0.00,0.00,VWS V14.01,2013-01-06 03:25:00,
2013-01-05 22:26:00,32.4,22.7,30.21,SW,226,0.0,2.0,67,0.00,,---,0.00,0.00,VWS V14.01,2013-01-06 03:26:00,
2013-01-05 22:30:00,30.4,21.5,30.21,SW,226,0.0,0.0,69,0.00,,---,0.00,0.00,VWS V14.01,2013-01-06 03:30:00,
2013-01-05 22:31:00,30.8,21.9,30.21,SW,226,0.0,0.0,69,0.00,,---,0.00,0.00,VWS V14.01,2013-01-06 03:31:00,
2013-01-05 22:35:00,30.9,23.3,30.21,SW,226,0.0,0.0,73,0.00,,---,0.00,0.00,VWS V14.01,2013-01-06 03:35:00,
2013-01-05 22:36:00,30.6,23.0,30.21,SW,226,0.0,0.0,73,0.00,,---,0.00,0.00,VWS V14.01,2013-01-06 03:36:00,
2013-01-05 22:40:00,32.1,23.8,30.20,SW,226,0.0,0.0,71,0.00,,---,0.00,0.00,VWS V14.01,2013-01-06 03:40:00,
2013-01-05 22:41:00,32.0,24.0,30.20,SW,226,0.0,0.0,72,0.00,,---,0.00,0.00,VWS V14.01,2013-01-06 03:41:00,
2013-01-05 22:45:00,32.8,24.1,30.20,SW,226,0.0,0.0,70,0.00,,---,0.00,0.00,VWS V14.01,2013-01-06 03:45:00,
2013-01-05 22:46:00,32.7,24.4,30.20,SW,226,0.0,0.0,71,0.00,,---,0.00,0.00,VWS V14.01,2013-01-06 03:46:00,
2013-01-05 22:50:00,33.2,24.5,30.19,SW,225,1.0,1.0,70,0.00,,---,0.00,0.00,VWS V14.01,2013-01-06 03:50:00,
2013-01-05 22:51:00,33.1,24.4,30.19,SW,225,1.0,1.0,70,0.00,,---,0.00,0.00,VWS V14.01,2013-01-06 03:51:00,
2013-01-05 22:55:00,33.6,24.2,30.18,SSW,203,0.0,2.0,68,0.00,,---,0.00,0.00,VWS V14.01,2013-01-06 03:55:00,
2013-01-05 22:56:00,33.6,24.5,30.18,SSW,203,0.0,2.0,69,0.00,,---,0.00,0.00,VWS V14.01,2013-01-06 03:56:00,
2013-01-05 23:00:00,33.6,24.2,30.19,SSW,203,0.0,0.0,68,0.00,,---,0.00,0.00,VWS V14.01,2013-01-06 04:00:00,
2013-01-05 23:01:00,33.6,24.2,30.19,SSW,203,0.0,0.0,68,0.00,,---,0.00,0.00,VWS V14.01,2013-01-06 04:01:00,
2013-01-05 23:05:00,33.4,24.0,30.19,SSW,203,0.0,0.0,68,0.00,,---,0.00,0.00,VWS V14.01,2013-01-06 04:05:00,
2013-01-05 23:06:00,33.4,24.0,30.19,SSW,203,0.0,0.0,68,0.00,,---,0.00,0.00,VWS V14.01,2013-01-06 04:06:00,
2013-01-05 23:10:00,33.5,24.1,30.19,SSW,203,0.0,0.0,68,0.00,,---,0.00,0.00,VWS V14.01,2013-01-06 04:10:00,
2013-01-05 23:11:00,33.5,24.4,30.19,SSW,203,0.0,0.0,69,0.00,,---,0.00,0.00,VWS V14.01,2013-01-06 04:11:00,
2013-01-05 23:15:00,33.3,24.2,30.19,SSW,203,0.0,0.0,69,0.00,,---,0.00,0.00,VWS V14.01,2013-01-06 04:15:00,
2013-01-05 23:16:00,33.2,24.1,30.19,SSW,203,0.0,0.0,69,0.00,,---,0.00,0.00,VWS V14.01,2013-01-06 04:16:00,
2013-01-05 23:20:00,33.4,24.3,30.18,SSW,203,0.0,0.0,69,0.00,,---,0.00,0.00,VWS V14.01,2013-01-06 04:20:00,
2013-01-05 23:25:00,33.3,24.2,30.18,SSW,203,0.0,0.0,69,0.00,,---,0.00,0.00,VWS V14.01,2013-01-06 04:25:00,
2013-01-05 23:30:00,33.6,24.5,30.18,SSW,203,0.0,0.0,69,0.00,,---,0.00,0.00,VWS V14.01,2013-01-06 04:30:00,
2013-01-05 23:35:00,33.7,24.3,30.17,SSW,203,0.0,0.0,68,0.00,,---,0.00,0.00,VWS V14.01,2013-01-06 04:35:00,
2013-01-05 23:40:00,33.6,24.5,30.16,SSW,203,1.0,2.0,69,0.00,,---,0.00,0.00,VWS V14.01,2013-01-06 04:40:00,
2013-01-05 23:45:00,33.7,24.6,30.17,SSW,203,0.0,2.0,69,0.00,,---,0.00,0.00,VWS V14.01,2013-01-06 04:45:00,
2013-01-05 23:50:00,33.8,24.7,30.17,SSW,203,0.0,0.0,69,0.00,,---,0.00,0.00,VWS V14.01,2013-01-06 04:50:00,
2013-01-05 23:55:00,33.9,24.8,30.17,SSW,203,0.0,1.0,69,0.00,,---,0.00,0.00,VWS V14.01,2013-01-06 04:55:00,